M I D A S
Marine Information and Data Acquisition System
Tripno 736 of the Zeeleeuw from 2004-06-14 06:28:19 to 2004-06-14 15:44:48
Back to CruiseResearch ActivitiesStationsMapUnderway DataData graphs

EquipmentUnitsComment
TimeDGPSUTC
LatitudeDGPSDM.mWGS84
LongitudeDGPSDM.mWGS84
TemperatureSBE03/SBE38deg celciusITS90
ConductivitySBE21S/mITS90
SalinitySBE21 Practical Salinity Units
ChlorophylAChelsea fluorimeterg/lCalibrated in Aceton
Missing or incorrect values are displayed as -999
Sea surface data collected by the RV Zeeleeuw from 2004-06-14 06:28:19 to 2004-06-14 15:44:48
                                                                                    Next 1000 lines
Time Latitude Longitude Temperature Conductivity Salinity ChlorophylA
2004-06-14 06:28:29 51°13.595 2°56.098 22.518359 0.022325 0.105499 12.163161
2004-06-14 06:28:34 51°13.595 2°56.098 22.518827 0.022325 0.105501 12.196871
2004-06-14 06:28:39 51°13.595 2°56.098 22.523475 0.022325 0.105502 12.163161
2004-06-14 06:28:43 51°13.595 2°56.098 22.527146 0.022325 0.105506 12.163161
2004-06-14 06:28:49 51°13.595 2°56.098 22.527146 0.022325 0.105506 12.163161
2004-06-14 06:28:54 51°13.595 2°56.098 22.526599 0.022325 0.105508 12.129452
2004-06-14 06:28:59 51°13.594 2°56.098 22.526521 0.022325 0.10551 12.129452
2004-06-14 06:29:05 51°13.595 2°56.098 22.520819 0.022325 0.105513 12.163161
2004-06-14 06:29:09 51°13.595 2°56.097 22.48281 0.022325 0.105514 12.129452
2004-06-14 06:29:13 51°13.595 2°56.096 22.498047 0.022325 0.105518 12.129452
2004-06-14 06:29:19 51°13.596 2°56.093 22.498047 0.022325 0.105518 12.129452
2004-06-14 06:29:23 51°13.597 2°56.091 22.443021 0.022325 0.10552 12.196871
2004-06-14 06:29:29 51°13.598 2°56.086 22.461589 0.022325 0.105524 12.163161
2004-06-14 06:29:34 51°13.6 2°56.082 22.516133 0.022325 0.105526 12.163161
2004-06-14 06:29:39 51°13.601 2°56.077 22.520233 0.022325 0.105529 12.196871
2004-06-14 06:29:45 51°13.603 2°56.07 22.537415 0.022325 0.105533 12.163161
2004-06-14 06:29:50 51°13.605 2°56.064 22.537415 0.022325 0.105533 12.163161
2004-06-14 06:29:55 51°13.607 2°56.058 22.532925 0.022325 0.105536 12.163161
2004-06-14 06:29:59 51°13.608 2°56.053 22.533159 0.022325 0.105542 12.163161
2004-06-14 06:30:05 51°13.611 2°56.045 22.519101 0.022325 0.105544 12.163161
2004-06-14 06:30:10 51°13.613 2°56.038 22.528512 0.022325 0.10555 12.196871
2004-06-14 06:30:15 51°13.615 2°56.031 22.536244 0.022325 0.105555 12.163161
2004-06-14 06:30:20 51°13.617 2°56.024 22.536244 0.022325 0.105555 12.163161
2004-06-14 06:30:25 51°13.619 2°56.016 22.540226 0.022325 0.105561 12.129452
2004-06-14 06:30:30 51°13.621 2°56.009 22.534916 0.022325 0.105564 12.129452
2004-06-14 06:30:35 51°13.623 2°56.001 22.533745 0.022325 0.105569 12.163161
2004-06-14 06:30:39 51°13.625 2°55.995 22.543233 0.022325 0.105575 12.196871
2004-06-14 06:30:45 51°13.627 2°55.985 22.541866 0.022325 0.10558 12.163161
2004-06-14 06:30:50 51°13.629 2°55.977 22.541866 0.022325 0.10558 12.163161
2004-06-14 06:30:55 51°13.632 2°55.968 22.5323 0.022325 0.105585 12.163161
2004-06-14 06:30:59 51°13.634 2°55.962 22.538782 0.022325 0.105588 12.196871
2004-06-14 06:31:05 51°13.637 2°55.951 22.554281 0.022325 0.105593 12.196871
2004-06-14 06:31:10 51°13.639 2°55.943 22.584917 0.022325 0.105598 12.196871
2004-06-14 06:31:15 51°13.642 2°55.934 22.564741 0.022325 0.105604 12.163161
2004-06-14 06:31:19 51°13.644 2°55.927 22.564741 0.022325 0.105604 12.163161
2004-06-14 06:31:25 51°13.647 2°55.916 22.562673 0.022325 0.105609 12.163161
2004-06-14 06:31:30 51°13.65 2°55.907 22.555647 0.022325 0.105613 12.163161
2004-06-14 06:31:35 51°13.653 2°55.898 22.550182 0.022325 0.105617 12.163161
2004-06-14 06:31:39 51°13.655 2°55.89 22.55147 0.022325 0.105624 12.196871
2004-06-14 06:31:45 51°13.658 2°55.878 22.556506 0.022325 0.105625 12.163161
2004-06-14 06:31:50 51°13.66 2°55.869 22.556506 0.022325 0.105625 12.163161
2004-06-14 06:31:55 51°13.663 2°55.859 22.553734 0.022325 0.105628 12.196871
2004-06-14 06:31:59 51°13.665 2°55.851 22.552407 0.022325 0.105631 12.196871
2004-06-14 06:32:05 51°13.667 2°55.838 22.555803 0.022325 0.105633 12.196871
2004-06-14 06:32:10 51°13.669 2°55.828 22.559355 0.022325 0.105634 12.163161
2004-06-14 06:32:15 51°13.671 2°55.818 22.57321 0.022325 0.105637 12.196871
2004-06-14 06:32:19 51°13.672 2°55.81 22.57321 0.022325 0.105637 12.196871
2004-06-14 06:32:25 51°13.673 2°55.8 22.560565 0.022325 0.105639 12.163161
2004-06-14 06:32:30 51°13.674 2°55.793 22.564741 0.022325 0.105639 12.129452
2004-06-14 06:32:34 51°13.675 2°55.788 22.560487 0.022325 0.105642 12.163161
2004-06-14 06:32:39 51°13.676 2°55.784 22.570283 0.022325 0.105644 12.196871
2004-06-14 06:32:44 51°13.676 2°55.782 22.584293 0.022325 0.105647 12.163161
2004-06-14 06:32:49 51°13.677 2°55.781 22.584293 0.022325 0.105647 12.163161
2004-06-14 06:32:54 51°13.677 2°55.782 22.589404 0.022325 0.10565 12.163161
2004-06-14 06:32:59 51°13.678 2°55.783 22.622209 0.022325 0.105654 12.196871
2004-06-14 06:33:04 51°13.679 2°55.786 22.609027 0.022325 0.105659 12.163161
2004-06-14 06:33:09 51°13.681 2°55.788 22.574069 0.022325 0.10566 12.163161
2004-06-14 06:33:14 51°13.682 2°55.79 22.487498 0.022325 0.105663 12.196871
2004-06-14 06:33:18 51°13.682 2°55.79 22.487498 0.022325 0.105663 12.196871
2004-06-14 06:33:24 51°13.682 2°55.79 22.531832 0.022325 0.105664 12.196871
2004-06-14 06:33:29 51°13.682 2°55.788 22.543233 0.022325 0.105666 12.163161
2004-06-14 06:33:34 51°13.681 2°55.787 22.538235 0.022325 0.105665 12.163161
2004-06-14 06:33:37 51°13.68 2°55.786 22.59904 0.022325 0.105666 12.163161
2004-06-14 06:33:45 51°13.677 2°55.782 22.577698 0.022325 0.105667 12.196871
2004-06-14 06:33:50 51°13.675 2°55.779 22.577698 0.022325 0.105667 12.196871
2004-06-14 06:33:55 51°13.672 2°55.776 22.543389 0.022325 0.105669 12.129452
2004-06-14 06:33:59 51°13.671 2°55.773 22.628293 0.022325 0.10567 12.163161
2004-06-14 06:34:05 51°13.668 2°55.771 22.617802 0.022325 0.105671 12.163161
2004-06-14 06:34:10 51°13.668 2°55.77 22.64233 0.022325 0.105673 12.196871
2004-06-14 06:34:14 51°13.669 2°55.77 22.694555 0.022325 0.105677 12.163161
2004-06-14 06:34:19 51°13.671 2°55.77 22.694555 0.022325 0.105677 12.163161
2004-06-14 06:34:25 51°13.674 2°55.77 22.696308 0.022325 0.105681 12.163161
2004-06-14 06:34:30 51°13.678 2°55.77 22.700788 0.022325 0.105684 12.163161
2004-06-14 06:34:33 51°13.681 2°55.769 22.66416 0.022325 0.105687 12.163161
2004-06-14 06:34:39 51°13.686 2°55.767 22.650478 0.022325 0.105691 12.163161
2004-06-14 06:34:43 51°13.69 2°55.764 22.656754 0.022325 0.105691 12.196871
2004-06-14 06:34:49 51°13.696 2°55.759 22.656754 0.022325 0.105691 12.196871
2004-06-14 06:34:54 51°13.701 2°55.754 22.63227 0.022325 0.105692 12.129452
2004-06-14 06:34:57 51°13.704 2°55.751 22.602707 0.022325 0.105692 12.163161
2004-06-14 06:35:07 51°13.716 2°55.738 22.50586 0.022325 0.105691 12.196871
2004-06-14 06:35:11 51°13.722 2°55.732 22.385956 0.022325 0.105683 12.196871
2004-06-14 06:35:17 51°13.73 2°55.723 22.382239 0.022221 0.105214 12.163161
2004-06-14 06:35:22 51°13.737 2°55.714 20.233813 0.022325 0.105731 12.129452
2004-06-14 06:35:27 51°13.745 2°55.705 19.550612 0.022325 0.105765 18.466819
2004-06-14 06:35:32 51°13.753 2°55.696 19.039901 3.497796 21.879556 32.186546
2004-06-14 06:35:37 51°13.762 2°55.686 19.039901 3.497796 21.879556 32.186546
2004-06-14 06:35:42 51°13.77 2°55.676 18.975425 3.06341 20.001521 24.568221
2004-06-14 06:35:47 51°13.78 2°55.666 18.889226 3.572008 24.308525 17.455537
2004-06-14 06:35:52 51°13.789 2°55.657 18.817038 3.737773 26.116579 18.43311
2004-06-14 06:35:57 51°13.8 2°55.649 18.727512 3.566021 25.169266 25.545794
2004-06-14 06:36:02 51°13.81 2°55.641 18.725246 3.482584 24.700743 11.792358
2004-06-14 06:36:07 51°13.821 2°55.634 18.725246 3.482584 24.700743 11.792358
2004-06-14 06:36:12 51°13.832 2°55.627 18.670747 3.427597 24.395272 11.185589
2004-06-14 06:36:17 51°13.843 2°55.62 18.651031 3.367979 24.008619 11.151879
2004-06-14 06:36:22 51°13.854 2°55.613 18.643441 3.310473 23.602925 11.253007
2004-06-14 06:36:27 51°13.866 2°55.606 18.586277 3.246759 23.152969 11.253007
2004-06-14 06:36:31 51°13.875 2°55.601 18.550882 3.312265 23.705506 11.320426
2004-06-14 06:36:37 51°13.889 2°55.592 18.550882 3.312265 23.705506 11.320426
2004-06-14 06:36:41 51°13.899 2°55.587 18.527867 3.295941 23.608381 11.354136
2004-06-14 06:36:47 51°13.913 2°55.578 18.492939 3.296784 23.639769 11.455264
2004-06-14 06:36:52 51°13.925 2°55.571 18.470443 3.266875 23.428717 11.455264
2004-06-14 06:36:57 51°13.937 2°55.563 18.427747 3.293204 23.665029 11.455264
2004-06-14 06:37:01 51°13.947 2°55.557 18.408583 3.333963 24.00293 11.387845
2004-06-14 06:37:07 51°13.962 2°55.548 18.408583 3.333963 24.00293 11.387845
2004-06-14 06:37:11 51°13.971 2°55.542 18.357523 3.336808 24.046686 11.320426
2004-06-14 06:37:17 51°13.986 2°55.533 18.378358 3.407485 24.635537 11.286717
2004-06-14 06:37:22 51°13.999 2°55.525 18.333533 3.452465 25.021938 11.185589
2004-06-14 06:37:27 51°14.011 2°55.516 18.320934 3.508089 25.487972 10.983332
2004-06-14 06:37:32 51°14.023 2°55.508 18.302197 3.538537 25.751803 10.915913
2004-06-14 06:37:37 51°14.036 2°55.5 18.302197 3.538537 25.751803 10.915913
2004-06-14 06:37:42 51°14.048 2°55.491 18.319027 3.589638 26.183667 10.848494
2004-06-14 06:37:47 51°14.06 2°55.482 18.300497 3.540961 25.805781 10.646238
2004-06-14 06:37:52 51°14.072 2°55.472 18.302653 3.486389 25.38335 10.679947
2004-06-14 06:37:57 51°14.085 2°55.461 18.296558 3.653072 26.744463 10.54511
2004-06-14 06:38:02 51°14.097 2°55.452 18.295522 3.647171 26.701201 10.443982
2004-06-14 06:38:07 51°14.109 2°55.441 18.295522 3.647171 26.701201 10.443982
2004-06-14 06:38:11 51°14.12 2°55.432 18.295605 3.664242 26.847783 10.410272
2004-06-14 06:38:17 51°14.135 2°55.419 18.305762 3.665401 26.864216 10.410272
2004-06-14 06:38:22 51°14.147 2°55.407 18.316209 3.641692 26.672496 10.309144
2004-06-14 06:38:26 51°14.158 2°55.396 18.313722 3.658341 26.813365 10.275435
2004-06-14 06:38:32 51°14.173 2°55.381 18.319193 3.691641 27.084711 10.309144
2004-06-14 06:38:38 51°14.189 2°55.365 18.319193 3.691641 27.084711 10.309144
2004-06-14 06:38:42 51°14.199 2°55.353 18.315131 3.671619 26.925078 10.309144
2004-06-14 06:38:47 51°14.212 2°55.337 18.292453 3.646223 26.716742 10.275435
2004-06-14 06:38:50 51°14.219 2°55.327 18.288389 3.660554 26.831354 10.275435
2004-06-14 06:38:58 51°14.238 2°55.299 18.27487 3.636423 26.633419 10.208016
2004-06-14 06:39:02 51°14.247 2°55.284 18.281298 3.63284 26.603862 10.241725
2004-06-14 06:39:07 51°14.259 2°55.265 18.281298 3.63284 26.603862 10.241725
2004-06-14 06:39:12 51°14.27 2°55.245 18.283081 3.605655 26.387375 10.241725
2004-06-14 06:39:17 51°14.281 2°55.224 18.308291 3.568883 26.095198 10.241725
2004-06-14 06:39:22 51°14.291 2°55.204 18.308001 3.565195 26.070771 10.309144
2004-06-14 06:39:27 51°14.302 2°55.183 18.304975 3.61967 26.521413 10.410272
2004-06-14 06:39:32 51°14.313 2°55.162 18.286109 3.648752 26.75733 10.410272
2004-06-14 06:39:37 51°14.325 2°55.142 18.286109 3.648752 26.75733 10.410272
2004-06-14 06:39:42 51°14.336 2°55.121 18.293697 3.588902 26.271184 10.5114
2004-06-14 06:39:47 51°14.347 2°55.101 18.283952 3.605234 26.396825 10.477691
2004-06-14 06:39:51 51°14.356 2°55.084 18.26898 3.550445 25.948129 10.5114
2004-06-14 06:39:57 51°14.37 2°55.059 18.220764 3.609027 26.425773 10.578819
2004-06-14 06:40:01 51°14.38 2°55.041 18.201917 3.588165 26.260167 10.477691
2004-06-14 06:40:07 51°14.394 2°55.016 18.201917 3.588165 26.260167 10.477691
2004-06-14 06:40:11 51°14.404 2°54.998 18.177042 3.541595 25.8846 10.5114
2004-06-14 06:40:17 51°14.418 2°54.97 18.153281 3.488497 25.46094 10.477691
2004-06-14 06:40:22 51°14.429 2°54.946 18.11226 3.492079 25.49877 10.612529
2004-06-14 06:40:27 51°14.44 2°54.922 18.099537 3.638426 26.70269 10.747366
2004-06-14 06:40:32 51°14.451 2°54.898 18.074668 3.691431 27.150159 10.814785
2004-06-14 06:40:37 51°14.463 2°54.874 18.074668 3.691431 27.150159 10.814785
2004-06-14 06:40:42 51°14.474 2°54.849 18.041716 3.209383 23.270507 10.949623
2004-06-14 06:40:47 51°14.485 2°54.825 18.007999 3.711454 27.349938 10.983332
2004-06-14 06:40:52 51°14.496 2°54.8 17.996382 3.725998 27.489595 10.949623
2004-06-14 06:40:57 51°14.507 2°54.775 17.956102 3.696912 27.266827 10.915913
2004-06-14 06:41:02 51°14.518 2°54.75 17.942517 3.753083 27.745056 10.949623
2004-06-14 06:41:07 51°14.528 2°54.724 17.942517 3.753083 27.745056 10.949623
2004-06-14 06:41:12 51°14.536 2°54.696 17.892406 3.847729 28.543437 10.848494
2004-06-14 06:41:17 51°14.542 2°54.668 17.846181 3.816953 28.304248 10.848494
2004-06-14 06:41:22 51°14.547 2°54.638 17.820886 3.830128 28.430318 10.814785
2004-06-14 06:41:27 51°14.55 2°54.609 17.807525 3.896112 29.000832 10.713657
2004-06-14 06:41:30 51°14.551 2°54.591 17.773068 3.897693 29.02926 10.713657
2004-06-14 06:41:37 51°14.552 2°54.548 17.773068 3.897693 29.02926 10.713657
2004-06-14 06:41:42 51°14.552 2°54.517 17.78088 3.091565 22.480884 10.646238
2004-06-14 06:41:47 51°14.551 2°54.487 17.768054 4.050659 30.352012 10.477691
2004-06-14 06:41:50 51°14.55 2°54.468 17.774154 4.08134 30.634266 10.376563
2004-06-14 06:41:57 51°14.547 2°54.426 17.755645 4.097156 30.78512 10.342853
2004-06-14 06:42:02 51°14.542 2°54.396 17.761536 4.109914 30.906226 10.241725
2004-06-14 06:42:07 51°14.536 2°54.367 17.761536 4.109914 30.906226 10.241725
2004-06-14 06:42:10 51°14.532 2°54.35 17.745907 4.118349 30.986834 10.140597
2004-06-14 06:42:17 51°14.521 2°54.31 17.753012 4.123305 31.037762 9.870922
2004-06-14 06:42:22 51°14.512 2°54.283 17.745071 4.125624 31.057783 9.837212
2004-06-14 06:42:25 51°14.507 2°54.266 17.755854 4.137328 31.166547 9.702375
2004-06-14 06:42:31 51°14.497 2°54.233 17.758194 4.140913 31.202201 9.601247
2004-06-14 06:42:38 51°14.483 2°54.195 17.758194 4.140913 31.202201 9.601247
2004-06-14 06:42:42 51°14.476 2°54.173 17.761912 4.146186 31.247617 9.297862
2004-06-14 06:42:47 51°14.466 2°54.147 17.761871 4.150192 31.284074 9.129315
2004-06-14 06:42:51 51°14.458 2°54.126 17.754516 4.153988 31.318214 9.095606
2004-06-14 06:42:57 51°14.447 2°54.093 17.760408 4.153567 31.314667 8.960768
2004-06-14 06:43:02 51°14.438 2°54.067 17.771815 4.154727 31.323865 8.927059
2004-06-14 06:43:07 51°14.428 2°54.041 17.771815 4.154727 31.323865 8.927059
2004-06-14 06:43:12 51°14.418 2°54.014 17.758946 4.155359 31.329741 8.85964
2004-06-14 06:43:17 51°14.407 2°53.988 17.759364 4.156835 31.339931 8.758512
2004-06-14 06:43:22 51°14.397 2°53.962 17.75999 4.158839 31.357892 8.758512
2004-06-14 06:43:27 51°14.386 2°53.936 17.761871 4.159261 31.35977 8.623674
2004-06-14 06:43:31 51°14.377 2°53.915 17.773402 4.159471 31.36043 8.623674
2004-06-14 06:43:37 51°14.365 2°53.883 17.773402 4.159471 31.36043 8.623674
2004-06-14 06:43:42 51°14.355 2°53.857 17.754725 4.161897 31.382498 8.657383
2004-06-14 06:43:47 51°14.344 2°53.831 17.754809 4.162951 31.393039 8.623674
2004-06-14 06:43:53 51°14.332 2°53.798 17.762832 4.164955 31.41045 8.657383
2004-06-14 06:43:57 51°14.324 2°53.777 17.754307 4.164955 31.40822 8.657383
2004-06-14 06:44:01 51°14.315 2°53.756 17.749794 4.165798 31.414759 8.724802
2004-06-14 06:44:07 51°14.303 2°53.723 17.749794 4.165798 31.414759 8.724802
2004-06-14 06:44:12 51°14.292 2°53.698 17.755185 4.169278 31.44794 8.657383
2004-06-14 06:44:17 51°14.282 2°53.67 17.757817 4.170754 31.463155 8.657383
2004-06-14 06:44:22 51°14.271 2°53.644 17.76162 4.171176 31.466146 8.691093
2004-06-14 06:44:27 51°14.261 2°53.617 17.754516 4.172441 31.477354 8.691093
2004-06-14 06:44:31 51°14.253 2°53.596 17.7635 4.174761 31.500794 8.589965
2004-06-14 06:44:37 51°14.24 2°53.564 17.7635 4.174761 31.500794 8.589965
2004-06-14 06:44:42 51°14.23 2°53.536 17.754224 4.175499 31.507567 8.657383
2004-06-14 06:44:47 51°14.22 2°53.51 17.748457 4.175921 31.50944 8.623674
2004-06-14 06:44:53 51°14.208 2°53.477 17.751884 4.175605 31.50342 8.657383
2004-06-14 06:44:57 51°14.199 2°53.455 17.755268 4.177714 31.523971 8.691093
2004-06-14 06:45:01 51°14.192 2°53.433 17.761536 4.178768 31.533968 8.758512
2004-06-14 06:45:07 51°14.179 2°53.401 17.761536 4.178768 31.533968 8.758512
2004-06-14 06:45:12 51°14.169 2°53.374 17.757274 4.18035 31.549526 8.691093
2004-06-14 06:45:17 51°14.158 2°53.347 17.758402 4.18151 31.561535 8.792221
2004-06-14 06:45:22 51°14.148 2°53.32 17.75134 4.182564 31.569294 8.758512
2004-06-14 06:45:27 51°14.137 2°53.293 17.755477 4.18267 31.570182 8.82593
2004-06-14 06:45:31 51°14.128 2°53.272 17.753681 4.182353 31.564155 8.85964
2004-06-14 06:45:37 51°14.116 2°53.239 17.753681 4.182353 31.564155 8.85964
2004-06-14 06:45:42 51°14.105 2°53.212 17.757107 4.183408 31.573034 8.960768
2004-06-14 06:45:47 51°14.094 2°53.186 17.755477 4.184568 31.584484 8.960768
2004-06-14 06:45:51 51°14.086 2°53.164 17.755477 4.186044 31.598601 8.960768
2004-06-14 06:45:57 51°14.073 2°53.132 17.758026 4.186993 31.607155 8.85964
2004-06-14 06:46:02 51°14.062 2°53.105 17.75414 4.187415 31.609585 8.927059
2004-06-14 06:46:04 51°14.058 2°53.094 17.75414 4.187415 31.609585 8.927059
2004-06-14 06:46:12 51°14.042 2°53.05 17.755018 4.188469 31.618467 8.927059
2004-06-14 06:46:17 51°14.031 2°53.023 17.755561 4.189418 31.628147 8.960768
2004-06-14 06:46:22 51°14.02 2°52.996 17.751424 4.190051 31.634038 8.85964
2004-06-14 06:46:27 51°14.01 2°52.969 17.752803 4.188258 31.617252 8.960768
2004-06-14 06:46:32 51°13.999 2°52.942 17.753095 4.191422 31.645025 8.927059
2004-06-14 06:46:37 51°13.988 2°52.915 17.753095 4.191422 31.645025 8.927059
2004-06-14 06:46:42 51°13.978 2°52.887 17.750463 4.191422 31.645587 8.927059
2004-06-14 06:46:47 51°13.967 2°52.86 17.756313 4.192476 31.654471 8.960768
2004-06-14 06:46:51 51°13.959 2°52.839 17.753973 4.193636 31.665368 8.927059
2004-06-14 06:46:57 51°13.946 2°52.806 17.749794 4.194163 31.670374 8.927059
2004-06-14 06:47:02 51°13.936 2°52.779 17.756815 4.194585 31.672802 8.927059
2004-06-14 06:47:07 51°13.925 2°52.752 17.756815 4.194585 31.672802 8.927059
2004-06-14 06:47:12 51°13.914 2°52.724 17.754934 4.196167 31.687256 8.927059
2004-06-14 06:47:17 51°13.904 2°52.697 17.754892 4.1968 31.693151 9.028187
2004-06-14 06:47:22 51°13.893 2°52.67 17.752134 4.198487 31.707369 8.994477
2004-06-14 06:47:27 51°13.883 2°52.642 17.762456 4.200174 31.722152 8.994477
2004-06-14 06:47:32 51°13.872 2°52.616 17.756606 4.200701 31.726033 8.994477
2004-06-14 06:47:37 51°13.862 2°52.588 17.756606 4.200701 31.726033 8.994477
2004-06-14 06:47:42 51°13.851 2°52.561 17.761244 4.200912 31.727247 9.061896
2004-06-14 06:47:47 51°13.84 2°52.534 17.762205 4.201545 31.733143 9.028187
2004-06-14 06:47:50 51°13.834 2°52.518 17.753012 4.202283 31.740492 9.061896
2004-06-14 06:47:57 51°13.819 2°52.48 17.755352 4.202283 31.738801 9.095606
2004-06-14 06:48:02 51°13.809 2°52.453 17.75251 4.202705 31.74292 9.061896
2004-06-14 06:48:07 51°13.798 2°52.426 17.75251 4.202705 31.74292 9.061896
2004-06-14 06:48:12 51°13.788 2°52.398 17.754057 4.202705 31.741228 9.095606
2004-06-14 06:48:17 51°13.776 2°52.372 17.754349 4.202388 31.738562 9.196734
2004-06-14 06:48:22 51°13.767 2°52.344 17.754725 4.203548 31.750031 9.196734
2004-06-14 06:48:27 51°13.755 2°52.317 17.750463 4.204603 31.759484 9.230443
2004-06-14 06:48:32 51°13.745 2°52.29 17.755477 4.205235 31.765946 9.297862
2004-06-14 06:48:37 51°13.735 2°52.262 17.755477 4.205235 31.765946 9.297862
2004-06-14 06:48:42 51°13.724 2°52.235 17.757358 4.205552 31.769742 9.331571
2004-06-14 06:48:47 51°13.714 2°52.207 17.752928 4.206501 31.777744 9.39899
2004-06-14 06:48:51 51°13.705 2°52.186 17.753848 4.206817 31.779846 9.365281
2004-06-14 06:48:57 51°13.693 2°52.153 17.754266 4.203337 31.749945 9.331571
2004-06-14 06:49:02 51°13.682 2°52.126 17.75765 4.207134 31.781384 9.466409
2004-06-14 06:49:06 51°13.673 2°52.104 17.75765 4.207134 31.781384 9.466409
2004-06-14 06:49:11 51°13.663 2°52.076 17.754725 4.207555 31.78494 9.466409
2004-06-14 06:49:17 51°13.651 2°52.043 17.761704 4.207766 31.787848 9.39899
2004-06-14 06:49:21 51°13.642 2°52.022 17.751131 4.208294 31.792293 9.4327
2004-06-14 06:49:27 51°13.629 2°51.989 17.751675 4.208293 31.791164 9.4327
2004-06-14 06:49:29 51°13.625 2°51.978 17.74971 4.208188 31.789145 9.39899
2004-06-14 06:49:37 51°13.608 2°51.934 17.74971 4.208188 31.789145 9.39899
2004-06-14 06:49:41 51°13.6 2°51.912 17.749125 4.208293 31.789469 9.500118
2004-06-14 06:49:47 51°13.587 2°51.879 17.752803 4.20861 31.792136 9.500118
2004-06-14 06:49:52 51°13.577 2°51.851 17.765004 4.209559 31.802398 9.39899
2004-06-14 06:49:57 51°13.566 2°51.824 17.753555 4.210192 31.809428 9.533828
2004-06-14 06:50:02 51°13.556 2°51.797 17.755561 4.210297 31.811448 9.500118
2004-06-14 06:50:07 51°13.545 2°51.77 17.755561 4.210297 31.811448 9.500118
2004-06-14 06:50:11 51°13.536 2°51.748 17.752552 4.211457 31.821795 9.466409
2004-06-14 06:50:17 51°13.524 2°51.715 17.758695 4.211246 31.81832 9.634956
2004-06-14 06:50:22 51°13.514 2°51.687 17.762665 4.211246 31.817755 9.634956
2004-06-14 06:50:27 51°13.503 2°51.66 17.757943 4.211984 31.824545 9.567537
2004-06-14 06:50:31 51°13.495 2°51.638 17.754057 4.212512 31.828991 9.567537
2004-06-14 06:50:37 51°13.482 2°51.606 17.754057 4.212512 31.828991 9.567537
2004-06-14 06:50:42 51°13.471 2°51.578 17.756815 4.213039 31.832872 9.668665
2004-06-14 06:50:47 51°13.461 2°51.55 17.761119 4.213566 31.835622 9.634956
2004-06-14 06:50:52 51°13.451 2°51.523 17.759364 4.213777 31.836835 9.668665
2004-06-14 06:50:57 51°13.44 2°51.495 17.75577 4.214831 31.847425 9.702375
2004-06-14 06:51:02 51°13.43 2°51.467 17.762748 4.21557 31.853084 9.668665
2004-06-14 06:51:07 51°13.419 2°51.44 17.762748 4.21557 31.853084 9.668665
2004-06-14 06:51:12 51°13.409 2°51.412 17.759907 4.216097 31.856965 9.736084
2004-06-14 06:51:18 51°13.396 2°51.38 17.765506 4.215991 31.85551 9.769794
2004-06-14 06:51:21 51°13.389 2°51.363 17.761536 4.217362 31.867638 9.736084
2004-06-14 06:51:27 51°13.376 2°51.33 17.756146 4.217889 31.873784 9.736084
2004-06-14 06:51:29 51°13.372 2°51.319 17.758402 4.218206 31.874753 9.736084
2004-06-14 06:51:37 51°13.355 2°51.276 17.758402 4.218206 31.874753 9.736084
2004-06-14 06:51:41 51°13.347 2°51.254 17.758194 4.218311 31.87451 9.803503
2004-06-14 06:51:47 51°13.334 2°51.221 17.763333 4.218733 31.878634 9.837212
2004-06-14 06:51:52 51°13.323 2°51.194 17.756815 4.220209 31.891653 9.837212
2004-06-14 06:51:57 51°13.313 2°51.166 17.764378 4.221158 31.900225 9.803503
2004-06-14 06:52:02 51°13.302 2°51.139 17.763584 4.22158 31.90435 9.870922
2004-06-14 06:52:07 51°13.292 2°51.111 17.763584 4.22158 31.90435 9.870922
2004-06-14 06:52:11 51°13.284 2°51.089 17.758026 4.221791 31.906129 9.837212
2004-06-14 06:52:17 51°13.271 2°51.056 17.757149 4.222107 31.908798 9.803503
2004-06-14 06:52:22 51°13.26 2°51.029 17.757525 4.222846 31.915593 9.904631
2004-06-14 06:52:27 51°13.25 2°51.001 17.756522 4.222951 31.914214 9.904631
2004-06-14 06:52:31 51°13.241 2°50.979 17.761244 4.223267 31.916316 9.837212
2004-06-14 06:52:37 51°13.229 2°50.946 17.761244 4.223267 31.916316 9.837212
2004-06-14 06:52:42 51°13.217 2°50.92 17.765506 4.224006 31.924244 9.938341
2004-06-14 06:52:47 51°13.208 2°50.891 17.765882 4.224638 31.931284 9.97205
2004-06-14 06:52:51 51°13.199 2°50.87 17.762581 4.225166 31.935733 9.97205
2004-06-14 06:52:57 51°13.186 2°50.837 17.758402 4.225271 31.935488 9.904631
2004-06-14 06:53:02 51°13.176 2°50.81 17.752803 4.225693 31.938479 10.005759
2004-06-14 06:53:07 51°13.165 2°50.782 17.752803 4.225693 31.938479 10.005759
2004-06-14 06:53:12 51°13.155 2°50.754 17.755101 4.226536 31.944462 10.039469
2004-06-14 06:53:17 51°13.144 2°50.727 17.76116 4.226536 31.943327 10.073178
2004-06-14 06:53:22 51°13.134 2°50.699 17.751424 4.227907 31.95546 10.005759
2004-06-14 06:53:26 51°13.125 2°50.678 17.752343 4.2239 31.925056 10.106888
2004-06-14 06:53:32 51°13.113 2°50.645 17.75414 4.225587 31.93986 10.073178
2004-06-14 06:53:37 51°13.102 2°50.617 17.75414 4.225587 31.93986 10.073178
2004-06-14 06:53:41 51°13.094 2°50.595 17.747704 4.230016 31.977801 10.005759
2004-06-14 06:53:47 51°13.081 2°50.562 17.748749 4.230649 31.982573 10.174306
2004-06-14 06:53:51 51°13.073 2°50.54 17.751507 4.231176 31.988728 10.073178
2004-06-14 06:53:57 51°13.061 2°50.508 17.752803 4.231598 31.992857 10.005759
2004-06-14 06:54:02 51°13.05 2°50.48 17.755018 4.231598 31.995131 10.039469
2004-06-14 06:54:07 51°13.04 2°50.453 17.755018 4.231598 31.995131 10.039469
2004-06-14 06:54:12 51°13.03 2°50.425 17.752803 4.232126 32.001288 10.106888
2004-06-14 06:54:17 51°13.019 2°50.398 17.759614 4.232231 32.001041 10.039469
2004-06-14 06:54:22 51°13.009 2°50.37 17.759364 4.231704 31.996021 10.073178
2004-06-14 06:54:27 51°12.998 2°50.344 17.759155 4.231282 31.993029 9.97205
2004-06-14 06:54:31 51°12.989 2°50.322 17.76396 4.231809 31.996343 10.106888
2004-06-14 06:54:37 51°12.976 2°50.29 17.76396 4.231809 31.996343 10.106888
2004-06-14 06:54:42 51°12.965 2°50.263 17.766341 4.231915 31.996664 10.073178
2004-06-14 06:54:47 51°12.954 2°50.237 17.7635 4.231704 31.992609 10.073178
2004-06-14 06:54:52 51°12.943 2°50.21 17.767553 4.231915 31.993821 10.174306
2004-06-14 06:54:57 51°12.932 2°50.183 17.771146 4.232442 31.996565 10.140597
2004-06-14 06:55:02 51°12.921 2°50.157 17.771439 4.232758 31.999235 10.140597
2004-06-14 06:55:07 51°12.91 2°50.13 17.771439 4.232758 31.999235 10.140597
2004-06-14 06:55:11 51°12.9 2°50.109 17.775574 4.232653 31.997208 10.073178
2004-06-14 06:55:18 51°12.885 2°50.071 17.77524 4.233707 32.00497 10.140597
2004-06-14 06:55:22 51°12.876 2°50.05 17.775031 4.234023 32.005934 10.241725
2004-06-14 06:55:27 51°12.866 2°50.023 17.78088 4.234445 32.007788 10.275435
2004-06-14 06:55:31 51°12.856 2°50.002 17.778624 4.235078 32.01199 10.208016
2004-06-14 06:55:37 51°12.844 2°49.97 17.778624 4.235078 32.01199 10.208016
2004-06-14 06:55:42 51°12.832 2°49.943 17.781757 4.235394 32.012385 10.241725
2004-06-14 06:55:47 51°12.821 2°49.916 17.779 4.235711 32.013917 10.376563
2004-06-14 06:55:51 51°12.813 2°49.895 17.785725 4.236554 32.020466 10.342853
2004-06-14 06:55:57 51°12.799 2°49.863 17.780211 4.236871 32.019155 10.275435
2004-06-14 06:56:02 51°12.788 2°49.836 17.78372 4.237292 32.02442 10.275435
2004-06-14 06:56:07 51°12.777 2°49.809 17.78372 4.237292 32.02442 10.275435
2004-06-14 06:56:12 51°12.766 2°49.782 17.783261 4.237714 32.026841 10.275435
2004-06-14 06:56:17 51°12.756 2°49.755 17.783553 4.237925 32.027483 10.309144
2004-06-14 06:56:22 51°12.744 2°49.729 17.788064 4.238136 32.029832 10.342853
2004-06-14 06:56:27 51°12.734 2°49.701 17.790153 4.238558 32.032822 10.309144
2004-06-14 06:56:31 51°12.725 2°49.68 17.791656 4.23919 32.037591 10.309144
2004-06-14 06:56:37 51°12.712 2°49.648 17.791656 4.23919 32.037591 10.309144
2004-06-14 06:56:42 51°12.701 2°49.622 17.794204 4.239296 32.037912 10.342853
2004-06-14 06:56:47 51°12.69 2°49.595 17.795749 4.239507 32.039692 10.342853
2004-06-14 06:56:52 51°12.679 2°49.568 17.794413 4.239612 32.038874 10.342853
2004-06-14 06:56:57 51°12.669 2°49.541 17.798756 4.239296 32.034499 10.309144
2004-06-14 06:57:02 51°12.658 2°49.514 17.805521 4.239401 32.033682 10.376563
2004-06-14 06:57:07 51°12.647 2°49.487 17.805521 4.239401 32.033682 10.376563
2004-06-14 06:57:12 51°12.636 2°49.46 17.7998 4.239929 32.037561 10.342853
2004-06-14 06:57:17 51°12.626 2°49.433 17.800552 4.24035 32.038275 10.376563
2004-06-14 06:57:22 51°12.615 2°49.407 17.799967 4.24035 32.037706 10.443982
2004-06-14 06:57:27 51°12.604 2°49.38 17.7998 4.240667 32.039237 10.443982
2004-06-14 06:57:32 51°12.592 2°49.353 17.800802 4.240667 32.036962 10.477691
2004-06-14 06:57:37 51°12.581 2°49.327 17.800802 4.240667 32.036962 10.477691
2004-06-14 06:57:42 51°12.571 2°49.3 17.803141 4.241088 32.041089 10.410272
2004-06-14 06:57:52 51°12.549 2°49.247 17.808361 4.241827 32.046747 10.443982
2004-06-14 06:57:57 51°12.538 2°49.22 17.807609 4.242459 32.052084 10.477691
2004-06-14 06:58:02 51°12.527 2°49.193 17.814331 4.24267 32.053294 10.477691
2004-06-14 06:58:07 51°12.517 2°49.166 17.814331 4.24267 32.053294 10.477691
2004-06-14 06:58:12 51°12.507 2°49.139 17.813997 4.242776 32.054183 10.410272
2004-06-14 06:58:17 51°12.497 2°49.11 17.813329 4.242881 32.053366 10.578819
2004-06-14 06:58:22 51°12.488 2°49.082 17.812369 4.243092 32.054007 10.5114
2004-06-14 06:58:27 51°12.479 2°49.055 17.819133 4.243514 32.055858 10.578819
2004-06-14 06:58:32 51°12.469 2°49.026 17.818924 4.243936 32.05714 10.612529
2004-06-14 06:58:37 51°12.46 2°48.998 17.818924 4.243936 32.05714 10.612529
2004-06-14 06:58:42 51°12.451 2°48.97 17.818005 4.244146 32.057212 10.646238
2004-06-14 06:58:53 51°12.431 2°48.908 17.824894 4.245306 32.065856 10.713657
2004-06-14 06:58:58 51°12.421 2°48.88 17.829987 4.245201 32.06326 10.5114
2004-06-14 06:59:03 51°12.412 2°48.852 17.830488 4.245834 32.067458 10.578819
2004-06-14 06:59:08 51°12.403 2°48.824 17.837083 4.246888 32.076351 10.612529
2004-06-14 06:59:13 51°12.393 2°48.796 17.837083 4.246888 32.076351 10.612529
2004-06-14 06:59:18 51°12.384 2°48.768 17.835371 4.24731 32.0782 10.781076
2004-06-14 06:59:23 51°12.374 2°48.74 17.835455 4.247943 32.08069 10.679947
2004-06-14 06:59:27 51°12.367 2°48.718 17.836039 4.248997 32.088444 10.747366
2004-06-14 06:59:33 51°12.356 2°48.684 17.836874 4.250052 32.095628 10.814785
2004-06-14 06:59:38 51°12.346 2°48.657 17.836623 4.250579 32.097797 10.781076
2004-06-14 06:59:43 51°12.336 2°48.628 17.836623 4.250579 32.097797 10.781076
2004-06-14 06:59:48 51°12.327 2°48.601 17.841131 4.251422 32.103202 10.781076
2004-06-14 06:59:53 51°12.317 2°48.573 17.843468 4.252161 32.108856 10.848494
2004-06-14 06:59:58 51°12.308 2°48.545 17.842717 4.252582 32.111844 10.882204
2004-06-14 07:00:02 51°12.3 2°48.523 17.845805 4.253532 32.119276 10.848494
2004-06-14 07:00:07 51°12.291 2°48.495 17.840672 4.253742 32.119915 10.882204
2004-06-14 07:00:13 51°12.28 2°48.461 17.840672 4.253742 32.119915 10.882204
2004-06-14 07:00:18 51°12.27 2°48.433 17.838877 4.253848 32.119096 10.915913
2004-06-14 07:00:23 51°12.261 2°48.405 17.843468 4.254059 32.119165 10.882204
2004-06-14 07:00:28 51°12.251 2°48.377 17.842717 4.254691 32.1245 10.848494
2004-06-14 07:00:33 51°12.242 2°48.349 17.840463 4.254586 32.123041 10.915913
2004-06-14 07:00:38 51°12.232 2°48.322 17.840046 4.255851 32.13371 10.915913
2004-06-14 07:00:43 51°12.224 2°48.293 17.840046 4.255851 32.13371 10.915913
2004-06-14 07:00:48 51°12.213 2°48.266 17.842091 4.255851 32.135419 10.882204
2004-06-14 07:00:53 51°12.205 2°48.237 17.840171 4.255641 32.132502 10.848494
2004-06-14 07:00:58 51°12.195 2°48.21 17.841966 4.255851 32.13371 10.949623
2004-06-14 07:01:02 51°12.188 2°48.188 17.843844 4.255851 32.13485 10.983332
2004-06-14 07:01:07 51°12.178 2°48.16 17.842634 4.256379 32.139295 10.882204
2004-06-14 07:01:13 51°12.167 2°48.127 17.842634 4.256379 32.139295 10.882204
2004-06-14 07:01:18 51°12.158 2°48.099 17.84376 4.256168 32.138657 11.017042
2004-06-14 07:01:23 51°12.149 2°48.071 17.845472 4.256273 32.138406 10.915913
2004-06-14 07:01:27 51°12.141 2°48.049 17.846014 4.255851 32.13371 10.983332
2004-06-14 07:01:33 51°12.13 2°48.015 17.844345 4.255746 32.132821 10.983332
2004-06-14 07:01:38 51°12.12 2°47.987 17.845179 4.256168 32.136377 10.949623
2004-06-14 07:01:43 51°12.112 2°47.959 17.845179 4.256168 32.136377 10.949623
2004-06-14 07:01:48 51°12.104 2°47.931 17.847057 4.256379 32.137586 11.08446
2004-06-14 07:01:53 51°12.096 2°47.901 17.845096 4.256695 32.140253 11.08446
2004-06-14 07:01:58 51°12.089 2°47.872 17.848727 4.256801 32.141142 11.08446
2004-06-14 07:02:03 51°12.081 2°47.843 17.842425 4.257222 32.144699 11.017042
2004-06-14 07:02:08 51°12.074 2°47.814 17.838794 4.257644 32.147685 11.050751
2004-06-14 07:02:13 51°12.067 2°47.784 17.838794 4.257644 32.147685 11.050751
2004-06-14 07:02:18 51°12.06 2°47.755 17.842258 4.258488 32.153658 11.050751
2004-06-14 07:02:23 51°12.052 2°47.726 17.841215 4.259121 32.159563 11.11817
2004-06-14 07:02:28 51°12.045 2°47.696 17.836623 4.260175 32.167885 11.017042
2004-06-14 07:02:33 51°12.037 2°47.667 17.835747 4.260702 32.172901 11.050751
2004-06-14 07:02:38 51°12.03 2°47.638 17.838043 4.261335 32.18109 11.11817
2004-06-14 07:02:43 51°12.022 2°47.609 17.838043 4.261335 32.18109 11.11817
2004-06-14 07:02:49 51°12.013 2°47.574 17.839712 4.261546 32.183439 11.050751
2004-06-14 07:02:53 51°12.007 2°47.55 17.839169 4.261335 32.18109 11.11817
2004-06-14 07:02:58 51°12 2°47.521 17.841966 4.261862 32.18782 11.050751
2004-06-14 07:03:01 51°11.995 2°47.504 17.841215 4.262495 32.193727 11.08446
2004-06-14 07:03:07 51°11.987 2°47.469 17.843176 4.262601 32.195759 11.11817
2004-06-14 07:03:13 51°11.978 2°47.434 17.843176 4.262601 32.195759 11.11817
2004-06-14 07:03:18 51°11.97 2°47.404 17.842467 4.262284 32.190806 11.017042
2004-06-14 07:03:23 51°11.963 2°47.375 17.838126 4.262706 32.193222 11.08446
2004-06-14 07:03:27 51°11.957 2°47.352 17.83821 4.262495 32.190873 11.11817
2004-06-14 07:03:33 51°11.947 2°47.318 17.83967 4.262812 32.193541 11.050751
2004-06-14 07:03:38 51°11.94 2°47.288 17.836957 4.263128 32.19678 11.11817
2004-06-14 07:03:43 51°11.933 2°47.259 17.836957 4.263128 32.19678 11.11817
2004-06-14 07:03:49 51°11.924 2°47.224 17.836248 4.262917 32.195001 11.151879
2004-06-14 07:03:53 51°11.918 2°47.201 17.838376 4.264182 32.206816 11.151879
2004-06-14 07:03:58 51°11.91 2°47.172 17.834328 4.264499 32.209485 11.017042
2004-06-14 07:04:01 51°11.906 2°47.154 17.831698 4.265132 32.215393 11.11817
2004-06-14 07:04:07 51°11.897 2°47.119 17.825562 4.265764 32.22073 11.151879
2004-06-14 07:04:13 51°11.888 2°47.084 17.825562 4.265764 32.22073 11.151879
2004-06-14 07:04:17 51°11.882 2°47.061 17.829194 4.266397 32.226639 11.08446
2004-06-14 07:04:23 51°11.873 2°47.026 17.822264 4.267768 32.239348 11.185589
2004-06-14 07:04:28 51°11.866 2°46.997 17.825854 4.268928 32.250851 11.08446
2004-06-14 07:04:33 51°11.858 2°46.968 17.820886 4.270826 32.269729 11.11817
2004-06-14 07:04:38 51°11.851 2°46.938 17.818673 4.27167 32.277421 11.08446
2004-06-14 07:04:43 51°11.843 2°46.909 17.818673 4.27167 32.277421 11.08446
2004-06-14 07:04:48 51°11.836 2°46.88 17.815083 4.272725 32.288039 11.219298
2004-06-14 07:04:53 51°11.828 2°46.851 17.814081 4.273674 32.295477 11.185589
2004-06-14 07:04:58 51°11.821 2°46.821 17.813455 4.274412 32.303999 11.151879
2004-06-14 07:05:03 51°11.814 2°46.792 17.808319 4.275677 32.316402 11.185589
2004-06-14 07:05:09 51°11.805 2°46.757 17.804268 4.276732 32.327599 11.219298
2004-06-14 07:05:13 51°11.799 2°46.734 17.804268 4.276732 32.327599 11.219298
2004-06-14 07:05:18 51°11.791 2°46.705 17.798672 4.277787 32.338798 11.185589
2004-06-14 07:05:23 51°11.784 2°46.676 17.796835 4.278103 32.344339 11.185589
2004-06-14 07:05:28 51°11.776 2°46.647 17.796877 4.278841 32.351147 11.185589
2004-06-14 07:05:33 51°11.769 2°46.617 17.796584 4.279685 32.359995 11.185589
2004-06-14 07:05:38 51°11.761 2°46.588 17.795081 4.280529 32.369994 11.219298
2004-06-14 07:05:43 51°11.754 2°46.559 17.795081 4.280529 32.369994 11.219298
2004-06-14 07:05:46 51°11.749 2°46.541 17.793076 4.281267 32.380253 11.151879
2004-06-14 07:05:53 51°11.739 2°46.5 17.790528 4.281794 32.385858 11.151879
2004-06-14 07:05:58 51°11.732 2°46.471 17.788273 4.282427 32.392929 11.185589
2004-06-14 07:06:03 51°11.724 2°46.442 17.794371 4.282005 32.391091 11.185589
2004-06-14 07:06:07 51°11.718 2°46.419 17.791865 4.282005 32.391666 11.286717
2004-06-14 07:06:13 51°11.709 2°46.384 17.791865 4.282005 32.391666 11.286717
2004-06-14 07:06:17 51°11.703 2°46.361 17.79103 4.282322 32.39664 11.11817
2004-06-14 07:06:23 51°11.694 2°46.325 17.790821 4.282216 32.3969 11.11817
2004-06-14 07:06:28 51°11.687 2°46.296 17.794204 4.282111 32.396584 11.11817
2004-06-14 07:06:33 51°11.68 2°46.266 17.794872 4.282005 32.394542 11.11817
2004-06-14 07:06:38 51°11.674 2°46.236 17.793452 4.281478 32.390662 11.08446
2004-06-14 07:06:43 51°11.668 2°46.206 17.793452 4.281478 32.390662 11.08446
2004-06-14 07:06:47 51°11.663 2°46.183 17.795833 4.281162 32.387988 11.151879
2004-06-14 07:06:53 51°11.656 2°46.146 17.788148 4.279053 32.370741 11.11817
2004-06-14 07:06:58 51°11.65 2°46.116 17.789986 4.279791 32.376404 11.151879
2004-06-14 07:07:03 51°11.644 2°46.086 17.785683 4.279685 32.373788 11.151879
2004-06-14 07:07:07 51°11.639 2°46.062 17.781757 4.281162 32.386263 11.11817
2004-06-14 07:07:13 51°11.632 2°46.026 17.781757 4.281162 32.386263 11.11817
2004-06-14 07:07:17 51°11.628 2°46.002 17.779919 4.281056 32.385372 11.08446
2004-06-14 07:07:23 51°11.621 2°45.966 17.783052 4.281373 32.389771 11.185589
2004-06-14 07:07:28 51°11.615 2°45.936 17.785516 4.279263 32.373098 11.185589
2004-06-14 07:07:33 51°11.609 2°45.906 17.782968 4.283798 32.413722 11.151879
2004-06-14 07:07:37 51°11.604 2°45.882 17.782592 4.285275 32.428506 11.151879
2004-06-14 07:07:43 51°11.597 2°45.846 17.782592 4.285275 32.428506 11.151879
2004-06-14 07:07:48 51°11.591 2°45.816 17.781632 4.281795 32.399665 11.151879
2004-06-14 07:07:53 51°11.585 2°45.786 17.781548 4.2819 32.400557 11.219298
2004-06-14 07:07:58 51°11.579 2°45.755 17.782885 4.286857 32.443031 11.185589
2004-06-14 07:08:03 51°11.574 2°45.725 17.782759 4.2877 32.449587 11.253007
2004-06-14 07:08:07 51°11.569 2°45.701 17.776619 4.287911 32.452523 11.219298
2004-06-14 07:08:13 51°11.562 2°45.665 17.776619 4.287911 32.452523 11.219298
2004-06-14 07:08:17 51°11.557 2°45.641 17.777496 4.289493 32.46532 11.320426
2004-06-14 07:08:23 51°11.55 2°45.605 17.773527 4.289809 32.468572 11.320426
2004-06-14 07:08:29 51°11.543 2°45.569 17.773151 4.29118 32.480741 11.253007
2004-06-14 07:08:33 51°11.539 2°45.544 17.771982 4.292446 32.492019 11.253007
2004-06-14 07:08:38 51°11.533 2°45.514 17.768222 4.293817 32.504191 11.219298
2004-06-14 07:08:43 51°11.527 2°45.484 17.768222 4.293817 32.504191 11.219298
2004-06-14 07:08:46 51°11.523 2°45.465 17.771355 4.294661 32.513059 11.219298
2004-06-14 07:08:53 51°11.515 2°45.423 17.768222 4.295715 32.523134 11.253007
2004-06-14 07:08:58 51°11.51 2°45.393 17.772191 4.296137 32.527858 11.286717
2004-06-14 07:09:03 51°11.504 2°45.363 17.773694 4.297508 32.54119 11.387845
2004-06-14 07:09:07 51°11.499 2°45.339 17.773903 4.297824 32.545023 11.421554
2004-06-14 07:09:13 51°11.492 2°45.302 17.773903 4.297824 32.545023 11.421554
2004-06-14 07:09:18 51°11.486 2°45.272 17.771815 4.298668 32.552739 11.421554
2004-06-14 07:09:22 51°11.481 2°45.248 17.770394 4.298563 32.551847 11.354136
2004-06-14 07:09:29 51°11.473 2°45.206 17.770018 4.298668 32.552739 11.354136
2004-06-14 07:09:33 51°11.468 2°45.182 17.775992 4.298774 32.552474 11.455264
2004-06-14 07:09:38 51°11.462 2°45.152 17.767929 4.298879 32.552788 11.387845
2004-06-14 07:09:41 51°11.459 2°45.134 17.767929 4.298879 32.552788 11.387845
2004-06-14 07:09:47 51°11.452 2°45.098 17.767093 4.299406 32.557828 11.488973
2004-06-14 07:09:53 51°11.444 2°45.062 17.764252 4.299828 32.561975 11.387845
2004-06-14 07:09:57 51°11.44 2°45.038 17.761996 4.300883 32.571477 11.488973
2004-06-14 07:10:03 51°11.433 2°45.002 17.76162 4.301305 32.574467 11.556392
2004-06-14 07:10:08 51°11.426 2°44.971 17.760492 4.301621 32.578882 11.421554
2004-06-14 07:10:13 51°11.421 2°44.941 17.760492 4.301621 32.578882 11.421554
2004-06-14 07:10:18 51°11.415 2°44.911 17.762832 4.302254 32.584236 11.623811
2004-06-14 07:10:23 51°11.409 2°44.881 17.75974 4.302676 32.590702 11.387845
2004-06-14 07:10:28 51°11.403 2°44.851 17.75765 4.303098 32.59601 11.488973
2004-06-14 07:10:33 51°11.397 2°44.82 17.754642 4.30373 32.601945 11.421554
2004-06-14 07:10:37 51°11.392 2°44.797 17.754725 4.303625 32.601632 11.623811
2004-06-14 07:10:43 51°11.385 2°44.761 17.754725 4.303625 32.601632 11.623811
2004-06-14 07:10:47 51°11.381 2°44.736 17.751758 4.303836 32.603418 11.556392
2004-06-14 07:10:53 51°11.373 2°44.7 17.754057 4.304574 32.610826 11.455264
2004-06-14 07:10:58 51°11.367 2°44.67 17.75017 4.305312 32.618814 11.556392
2004-06-14 07:11:02 51°11.362 2°44.646 17.746618 4.305945 32.624751 11.69123
2004-06-14 07:11:07 51°11.357 2°44.616 17.751591 4.306578 32.631848 11.590101
2004-06-14 07:11:13 51°11.35 2°44.58 17.751591 4.306578 32.631848 11.590101
2004-06-14 07:11:18 51°11.344 2°44.55 17.75017 4.307211 32.637786 11.590101
2004-06-14 07:11:23 51°11.338 2°44.52 17.741352 4.307527 32.640465 11.758648
2004-06-14 07:11:28 51°11.332 2°44.49 17.745364 4.308476 32.649082 11.556392
2004-06-14 07:11:33 51°11.325 2°44.46 17.74085 4.30932 32.657968 11.623811
2004-06-14 07:11:37 51°11.321 2°44.436 17.742522 4.309953 32.663326 11.69123
2004-06-14 07:11:43 51°11.313 2°44.4 17.742522 4.309953 32.663326 11.69123
2004-06-14 07:11:49 51°11.307 2°44.364 17.738844 4.31048 32.668953 11.69123
2004-06-14 07:11:53 51°11.302 2°44.34 17.734789 4.311324 32.677261 11.65752
2004-06-14 07:11:58 51°11.296 2°44.31 17.72994 4.31164 32.681684 11.69123
2004-06-14 07:12:03 51°11.29 2°44.28 17.731153 4.312168 32.689058 11.758648
2004-06-14 07:12:07 51°11.286 2°44.256 17.728268 4.312589 32.694376 11.69123
2004-06-14 07:12:13 51°11.278 2°44.22 17.728268 4.312589 32.694376 11.69123
2004-06-14 07:12:18 51°11.273 2°44.189 17.728268 4.3128 32.697326 11.724939
2004-06-14 07:12:22 51°11.268 2°44.166 17.726847 4.312695 32.698178 11.65752
2004-06-14 07:12:29 51°11.26 2°44.124 17.724255 4.313433 32.707342 11.724939
2004-06-14 07:12:33 51°11.256 2°44.099 17.719322 4.313644 32.709129 11.758648
2004-06-14 07:12:38 51°11.25 2°44.069 17.719698 4.314171 32.715344 11.590101
2004-06-14 07:12:43 51°11.244 2°44.039 17.719698 4.314171 32.715344 11.590101
2004-06-14 07:12:49 51°11.237 2°44.003 17.717942 4.314277 32.717402 11.724939
2004-06-14 07:12:53 51°11.232 2°43.979 17.72275 4.314804 32.7242 11.826067
2004-06-14 07:12:58 51°11.226 2°43.949 17.72091 4.315121 32.727464 11.792358
2004-06-14 07:13:03 51°11.221 2°43.919 17.721328 4.315648 32.734846 11.724939
2004-06-14 07:13:08 51°11.215 2°43.889 17.721328 4.316492 32.743163 11.893486
2004-06-14 07:13:13 51°11.209 2°43.859 17.721328 4.316492 32.743163 11.893486
2004-06-14 07:13:18 51°11.204 2°43.829 17.719698 4.316597 32.74464 11.859777
2004-06-14 07:13:23 51°11.198 2°43.8 17.719698 4.317019 32.748216 11.826067
2004-06-14 07:13:29 51°11.191 2°43.764 17.720367 4.317335 32.749732 11.792358
2004-06-14 07:13:33 51°11.186 2°43.74 17.720785 4.318074 32.754824 11.724939
2004-06-14 07:13:37 51°11.181 2°43.716 17.719865 4.31839 32.757506 11.859777
2004-06-14 07:13:43 51°11.175 2°43.68 17.719865 4.31839 32.757506 11.859777
2004-06-14 07:13:48 51°11.168 2°43.65 17.720367 4.318812 32.763998 11.758648
2004-06-14 07:13:53 51°11.163 2°43.62 17.721161 4.319445 32.768779 11.893486
2004-06-14 07:13:56 51°11.159 2°43.602 17.719322 4.319234 32.766991 11.927195
2004-06-14 07:14:02 51°11.153 2°43.565 17.719363 4.319339 32.767885 11.994614
2004-06-14 07:14:08 51°11.146 2°43.53 17.717231 4.319339 32.767302 11.826067
2004-06-14 07:14:13 51°11.14 2°43.5 17.717231 4.319339 32.767302 11.826067
2004-06-14 07:14:18 51°11.134 2°43.47 17.720116 4.319445 32.768196 11.859777
2004-06-14 07:14:23 51°11.128 2°43.44 17.717315 4.319656 32.7694 11.826067
2004-06-14 07:14:28 51°11.123 2°43.41 17.715057 4.320183 32.775038 11.927195
2004-06-14 07:14:33 51°11.116 2°43.381 17.716269 4.32071 32.778925 11.859777
2004-06-14 07:14:38 51°11.111 2°43.351 17.721621 4.321554 32.787245 11.893486
2004-06-14 07:14:43 51°11.105 2°43.321 17.721621 4.321554 32.787245 11.893486
2004-06-14 07:14:47 51°11.101 2°43.297 17.71514 4.321976 32.790822 11.994614
2004-06-14 07:14:53 51°11.094 2°43.261 17.718193 4.323136 32.801242 11.960905
2004-06-14 07:14:57 51°11.089 2°43.237 17.716311 4.323874 32.80867 11.927195
2004-06-14 07:15:03 51°11.082 2°43.202 17.712548 4.323769 32.80836 12.028324
2004-06-14 07:15:09 51°11.075 2°43.166 17.711335 4.324823 32.816719 11.960905
2004-06-14 07:15:13 51°11.071 2°43.142 17.711335 4.324823 32.816719 11.960905
2004-06-14 07:15:18 51°11.065 2°43.112 17.711168 4.325667 32.823874 12.028324
2004-06-14 07:15:23 51°11.059 2°43.083 17.707488 4.325878 32.825079 11.859777
2004-06-14 07:15:29 51°11.052 2°43.047 17.708617 4.327038 32.836086 12.062033
2004-06-14 07:15:33 51°11.047 2°43.023 17.707279 4.327987 32.845306 11.859777
2004-06-14 07:15:38 51°11.042 2°42.993 17.705105 4.328726 32.852737 11.927195
2004-06-14 07:15:43 51°11.036 2°42.963 17.705105 4.328726 32.852737 11.927195
2004-06-14 07:15:48 51°11.03 2°42.934 17.705732 4.329042 32.856591 11.960905
2004-06-14 07:15:53 51°11.024 2°42.904 17.703014 4.329991 32.865813 11.960905
2004-06-14 07:15:58 51°11.019 2°42.874 17.702721 4.330202 32.868188 11.994614
2004-06-14 07:16:03 51°11.013 2°42.844 17.704645 4.331151 32.876826 11.927195
2004-06-14 07:16:07 51°11.008 2°42.82 17.704059 4.331573 32.880991 11.893486
2004-06-14 07:16:13 51°11.001 2°42.785 17.704059 4.331573 32.880991 11.893486
2004-06-14 07:16:18 51°10.996 2°42.755 17.703683 4.332206 32.886359 11.994614
2004-06-14 07:16:22 51°10.991 2°42.731 17.703307 4.332628 32.892282 11.994614
2004-06-14 07:16:29 51°10.983 2°42.689 17.699794 4.332944 32.895552 11.893486
2004-06-14 07:16:33 51°10.979 2°42.665 17.700463 4.333155 32.896756 11.994614
2004-06-14 07:16:38 51°10.973 2°42.636 17.700045 4.333893 32.903607 11.960905
2004-06-14 07:16:43 51°10.968 2°42.606 17.700045 4.333893 32.903607 11.960905
2004-06-14 07:16:49 51°10.961 2°42.57 17.704728 4.334421 32.908668 11.927195
2004-06-14 07:16:53 51°10.957 2°42.546 17.697326 4.334632 32.912803 11.960905
2004-06-14 07:16:58 51°10.951 2°42.516 17.699208 4.335054 32.916383 12.095742
2004-06-14 07:17:03 51°10.946 2°42.486 17.698957 4.33537 32.919068 12.028324
2004-06-14 07:17:08 51°10.94 2°42.457 17.695151 4.336214 32.926229 11.960905
2004-06-14 07:17:13 51°10.934 2°42.427 17.695151 4.336214 32.926229 11.960905
2004-06-14 07:17:18 51°10.929 2°42.397 17.691052 4.336425 32.928019 11.994614
2004-06-14 07:17:23 51°10.925 2°42.368 17.691262 4.337268 32.93694 11.994614
2004-06-14 07:17:29 51°10.922 2°42.334 17.695821 4.338112 32.944102 12.028324
2004-06-14 07:17:33 51°10.92 2°42.311 17.690467 4.338218 32.945584 12.062033
2004-06-14 07:17:38 51°10.92 2°42.284 17.693437 4.338323 32.948827 11.893486
2004-06-14 07:17:43 51°10.922 2°42.258 17.693437 4.338323 32.948827 11.893486
2004-06-14 07:17:48 51°10.925 2°42.233 17.696657 4.340116 32.964636 11.859777
2004-06-14 07:17:53 51°10.93 2°42.21 17.691345 4.34096 32.972386 11.927195
2004-06-14 07:17:58 51°10.937 2°42.189 17.688334 4.341487 32.976276 11.724939
2004-06-14 07:18:03 51°10.945 2°42.171 17.692976 4.342225 32.983132 11.69123
2004-06-14 07:18:07 51°10.951 2°42.158 17.704394 4.342225 32.980781 11.69123
2004-06-14 07:18:13 51°10.962 2°42.14 17.704394 4.342225 32.980781 11.69123
2004-06-14 07:18:18 51°10.97 2°42.128 17.699417 4.343596 32.989483 11.69123
2004-06-14 07:18:23 51°10.978 2°42.116 17.690383 4.344229 32.997795 11.826067
2004-06-14 07:18:28 51°10.987 2°42.107 17.687664 4.344124 32.998663 11.758648
2004-06-14 07:18:33 51°10.995 2°42.098 17.688794 4.342963 32.987637 11.792358
2004-06-14 07:18:38 51°11.004 2°42.091 17.683105 4.341487 32.973338 11.69123
2004-06-14 07:18:43 51°11.012 2°42.085 17.683105 4.341487 32.973338 11.69123
2004-06-14 07:18:49 51°11.021 2°42.078 17.685447 4.341065 32.967995 11.69123
2004-06-14 07:18:54 51°11.028 2°42.073 17.688459 4.342331 32.982264 11.522683
2004-06-14 07:18:59 51°11.036 2°42.069 17.683105 4.342858 32.990268 11.455264
2004-06-14 07:19:04 51°11.043 2°42.065 17.678838 4.342753 32.991724 11.286717
2004-06-14 07:19:08 51°11.048 2°42.062 17.677792 4.343069 32.995587 11.219298
2004-06-14 07:19:14 51°11.056 2°42.059 17.677792 4.343069 32.995587 11.219298
2004-06-14 07:19:18 51°11.061 2°42.058 17.675324 4.342858 32.993796 11.320426
2004-06-14 07:19:24 51°11.069 2°42.056 17.675324 4.342964 32.994692 11.219298
2004-06-14 07:19:29 51°11.075 2°42.054 17.679591 4.343069 32.996763 11.185589
2004-06-14 07:19:34 51°11.081 2°42.053 17.674947 4.343491 33.003287 11.219298
2004-06-14 07:19:39 51°11.087 2°42.052 17.675868 4.343596 33.005359 11.151879
2004-06-14 07:19:44 51°11.092 2°42.051 17.675868 4.343596 33.005359 11.151879
2004-06-14 07:19:48 51°11.096 2°42.05 17.669425 4.343597 33.007125 11.151879
2004-06-14 07:19:54 51°11.101 2°42.049 17.669257 4.343597 33.007713 11.11817
2004-06-14 07:19:59 51°11.104 2°42.048 17.669634 4.343491 33.006229 11.11817
2004-06-14 07:20:03 51°11.106 2°42.048 17.671349 4.343807 33.008916 11.219298
2004-06-14 07:20:05 51°11.106 2°42.047 17.670973 4.343491 33.007994 11.185589
2004-06-14 07:20:14 51°11.109 2°42.046 17.670973 4.343491 33.007994 11.185589
2004-06-14 07:20:19 51°11.11 2°42.045 17.668588 4.343702 33.01214 11.185589
2004-06-14 07:20:24 51°11.111 2°42.045 17.670554 4.343491 33.012114 11.219298
2004-06-14 07:20:29 51°11.112 2°42.044 17.666203 4.343386 33.011218 11.185589
2004-06-14 07:20:34 51°11.112 2°42.043 17.670931 4.343808 33.014802 11.421554
2004-06-14 07:20:39 51°11.113 2°42.042 17.667458 4.343597 33.014187 11.387845
2004-06-14 07:20:43 51°11.114 2°42.042 17.667458 4.343597 33.014187 11.387845
2004-06-14 07:20:49 51°11.115 2°42.041 17.672353 4.343175 33.01178 11.286717
2004-06-14 07:20:54 51°11.116 2°42.041 17.671307 4.343386 33.012983 11.320426
2004-06-14 07:20:59 51°11.117 2°42.04 17.669634 4.342964 33.009399 11.219298
2004-06-14 07:21:03 51°11.118 2°42.039 17.671517 4.343175 33.01178 11.286717
2004-06-14 07:21:16 51°11.121 2°42.037 17.672102 4.342753 33.007607 11.320426
2004-06-14 07:21:22 51°11.122 2°42.036 17.672061 4.343175 33.01178 11.219298
2004-06-14 07:21:27 51°11.122 2°42.035 17.672353 4.342964 33.009399 11.320426
2004-06-14 07:21:32 51°11.123 2°42.034 17.672353 4.342964 33.009399 11.320426
2004-06-14 07:21:36 51°11.124 2°42.033 17.673148 4.342331 33.003434 11.387845
2004-06-14 07:21:42 51°11.126 2°42.033 17.673441 4.342226 33.00195 11.286717
2004-06-14 07:21:47 51°11.127 2°42.032 17.675324 4.341698 32.996881 11.219298
2004-06-14 07:21:52 51°11.128 2°42.032 17.67227 4.341487 32.995678 11.151879
2004-06-14 07:21:56 51°11.129 2°42.031 17.673232 4.341593 32.996574 11.253007
2004-06-14 07:22:02 51°11.13 2°42.029 17.673232 4.341593 32.996574 11.253007
2004-06-14 07:22:05 51°11.13 2°42.029 17.673316 4.341487 32.995678 11.185589
2004-06-14 07:22:12 51°11.131 2°42.027 17.672479 4.341276 32.993886 11.185589
2004-06-14 07:22:16 51°11.132 2°42.027 17.673901 4.340644 32.987334 11.185589
2004-06-14 07:22:22 51°11.133 2°42.025 17.67227 4.340855 32.988537 11.219298
2004-06-14 07:22:27 51°11.134 2°42.024 17.671684 4.340855 32.989126 11.185589
2004-06-14 07:22:30 51°11.135 2°42.024 17.671684 4.340855 32.989126 11.185589
2004-06-14 07:22:36 51°11.136 2°42.023 17.672688 4.333894 32.929416 11.185589
2004-06-14 07:22:42 51°11.138 2°42.022 17.67273 4.340644 32.987334 11.185589
2004-06-14 07:22:47 51°11.138 2°42.021 17.675491 4.340644 32.98851 11.320426
2004-06-14 07:22:52 51°11.139 2°42.02 17.677583 4.340538 32.986438 11.286717
2004-06-14 07:22:56 51°11.14 2°42.02 17.673692 4.340749 32.989406 11.253007
2004-06-14 07:23:02 51°11.142 2°42.019 17.673692 4.340749 32.989406 11.253007
2004-06-14 07:23:07 51°11.142 2°42.018 17.674445 4.340433 32.986718 11.421554
2004-06-14 07:23:12 51°11.144 2°42.018 17.67386 4.340222 32.984926 11.286717
2004-06-14 07:23:16 51°11.144 2°42.017 17.673776 4.340011 32.983723 11.623811
2004-06-14 07:23:22 51°11.145 2°42.015 17.67386 4.340116 32.98403 11.488973
2004-06-14 07:23:27 51°11.146 2°42.014 17.675115 4.340222 32.984338 11.455264
2004-06-14 07:23:32 51°11.147 2°42.013 17.675115 4.340222 32.984338 11.455264
2004-06-14 07:23:37 51°11.148 2°42.012 17.674738 4.340011 32.98137 11.556392
2004-06-14 07:23:42 51°11.149 2°42.012 17.675407 4.340222 32.982574 11.522683
2004-06-14 07:23:47 51°11.15 2°42.011 17.674822 4.340116 32.982854 11.556392
2004-06-14 07:23:52 51°11.151 2°42.01 17.675784 4.340327 32.985234 11.65752
2004-06-14 07:23:57 51°11.152 2°42.009 17.674864 4.339905 32.980474 11.556392
2004-06-14 07:24:02 51°11.153 2°42.008 17.674864 4.339905 32.980474 11.556392
2004-06-14 07:24:05 51°11.153 2°42.008 17.677583 4.339694 32.979271 11.65752
2004-06-14 07:24:11 51°11.155 2°42.007 17.679967 4.339694 32.978095 11.623811
2004-06-14 07:24:16 51°11.156 2°42.006 17.679424 4.339273 32.974511 11.724939
2004-06-14 07:24:22 51°11.157 2°42.005 17.678461 4.339589 32.977787 11.556392
2004-06-14 07:24:27 51°11.157 2°42.004 17.67637 4.3398 32.978403 11.724939
2004-06-14 07:24:32 51°11.158 2°42.003 17.67637 4.3398 32.978403 11.724939
2004-06-14 07:24:36 51°11.159 2°42.002 17.677039 4.3398 32.977815 11.758648
2004-06-14 07:24:42 51°11.16 2°42.002 17.677499 4.339483 32.973952 11.69123
2004-06-14 07:24:47 51°11.161 2°42.001 17.675784 4.3398 32.975463 11.65752
2004-06-14 07:24:52 51°11.162 2°42 17.679089 4.3398 32.977227 11.724939
2004-06-14 07:24:56 51°11.163 2°41.999 17.678796 4.339483 32.975127 11.69123
2004-06-14 07:25:02 51°11.164 2°41.998 17.678796 4.339483 32.975127 11.69123
2004-06-14 07:25:07 51°11.165 2°41.997 17.677959 4.339378 32.973644 11.724939
2004-06-14 07:25:12 51°11.166 2°41.996 17.679298 4.339273 32.973336 11.758648
2004-06-14 07:25:17 51°11.167 2°41.996 17.679089 4.339483 32.974539 11.826067
2004-06-14 07:25:22 51°11.168 2°41.995 17.678127 4.339272 32.97216 11.792358
2004-06-14 07:25:27 51°11.169 2°41.994 17.67775 4.339378 32.973644 11.826067
2004-06-14 07:25:32 51°11.17 2°41.993 17.67775 4.339378 32.973644 11.826067
2004-06-14 07:25:37 51°11.171 2°41.992 17.679382 4.339272 32.97216 11.826067
2004-06-14 07:25:42 51°11.172 2°41.991 17.678336 4.339272 32.971572 11.859777
2004-06-14 07:25:45 51°11.172 2°41.991 17.680428 4.339062 32.969193 11.826067
2004-06-14 07:25:52 51°11.174 2°41.989 17.681013 4.339167 32.970089 11.826067
2004-06-14 07:25:56 51°11.174 2°41.989 17.678545 4.338956 32.969473 11.724939
2004-06-14 07:26:02 51°11.175 2°41.988 17.678545 4.338956 32.969473 11.724939
2004-06-14 07:26:07 51°11.176 2°41.987 17.680553 4.338956 32.96771 11.792358
2004-06-14 07:26:11 51°11.177 2°41.986 17.679214 4.338851 32.967989 11.792358
2004-06-14 07:26:15 51°11.178 2°41.986 17.678796 4.338745 32.966506 11.69123
2004-06-14 07:26:22 51°11.179 2°41.985 17.679173 4.338534 32.964714 11.859777
2004-06-14 07:26:27 51°11.18 2°41.984 17.68026 4.338534 32.965302 11.859777
2004-06-14 07:26:32 51°11.181 2°41.983 17.68026 4.338534 32.965302 11.859777
2004-06-14 07:26:36 51°11.182 2°41.983 17.678712 4.33864 32.96561 11.893486
2004-06-14 07:26:42 51°11.183 2°41.982 17.679507 4.33864 32.966198 11.859777
2004-06-14 07:26:47 51°11.184 2°41.981 17.680804 4.338323 32.963511 11.859777
2004-06-14 07:26:52 51°11.185 2°41.98 17.681683 4.338534 32.965302 11.859777
2004-06-14 07:26:56 51°11.186 2°41.98 17.681222 4.33864 32.966198 11.893486
2004-06-14 07:27:02 51°11.187 2°41.979 17.681222 4.33864 32.966198 11.893486
2004-06-14 07:27:06 51°11.188 2°41.978 17.679884 4.338534 32.965302 11.758648
2004-06-14 07:27:11 51°11.189 2°41.978 17.683105 4.338429 32.963231 11.960905
2004-06-14 07:27:15 51°11.19 2°41.977 17.684318 4.33864 32.96561 11.960905
2004-06-14 07:27:22 51°11.191 2°41.976 17.681097 4.338429 32.963231 11.927195
2004-06-14 07:27:27 51°11.192 2°41.975 17.68072 4.338323 32.962923 11.994614
2004-06-14 07:27:32 51°11.193 2°41.975 17.68072 4.338323 32.962923 11.994614
2004-06-14 07:27:36 51°11.194 2°41.974 17.679842 4.338323 32.962335 11.927195
2004-06-14 07:27:42 51°11.195 2°41.973 17.680051 4.338534 32.962952 11.994614
2004-06-14 07:27:47 51°11.196 2°41.973 17.682519 4.338534 32.964127 11.893486
2004-06-14 07:27:51 51°11.197 2°41.972 17.679758 4.338534 32.962952 11.927195
2004-06-14 07:27:57 51°11.199 2°41.971 17.681473 4.338218 32.96144 11.994614
2004-06-14 07:28:02 51°11.199 2°41.971 17.681473 4.338218 32.96144 11.994614
2004-06-14 07:28:07 51°11.201 2°41.97 17.681473 4.338429 32.963231 12.062033
2004-06-14 07:28:12 51°11.202 2°41.969 17.68185 4.338323 32.962923 12.062033
2004-06-14 07:28:16 51°11.202 2°41.969 17.681975 4.33864 32.964435 11.927195
2004-06-14 07:28:22 51°11.204 2°41.968 17.681264 4.338218 32.96144 12.028324
2004-06-14 07:28:25 51°11.204 2°41.967 17.681934 4.338429 32.963231 11.994614
2004-06-14 07:28:32 51°11.206 2°41.967 17.681934 4.338429 32.963231 11.994614
2004-06-14 07:28:36 51°11.206 2°41.966 17.68277 4.338007 32.959648 11.960905
2004-06-14 07:28:42 51°11.208 2°41.965 17.683063 4.338429 32.962644 11.994614
2004-06-14 07:28:47 51°11.209 2°41.964 17.682979 4.338429 32.962644 11.994614
2004-06-14 07:28:51 51°11.21 2°41.964 17.686033 4.338534 32.963539 11.960905
2004-06-14 07:28:56 51°11.211 2°41.963 17.685364 4.338323 32.962335 12.028324
2004-06-14 07:29:02 51°11.212 2°41.963 17.685364 4.338323 32.962335 12.028324
2004-06-14 07:29:06 51°11.213 2°41.962 17.685573 4.338218 32.96144 11.927195
2004-06-14 07:29:12 51°11.214 2°41.961 17.685531 4.338112 32.960544 11.927195
2004-06-14 07:29:16 51°11.214 2°41.961 17.684025 4.338323 32.96116 11.994614
2004-06-14 07:29:22 51°11.216 2°41.96 17.682017 4.337901 32.95699 11.927195
2004-06-14 07:29:27 51°11.217 2°41.959 17.682017 4.338323 32.96116 11.960905
2004-06-14 07:29:32 51°11.218 2°41.959 17.682017 4.338323 32.96116 11.960905
2004-06-14 07:29:37 51°11.219 2°41.958 17.683105 4.338429 32.960881 11.960905
2004-06-14 07:29:42 51°11.22 2°41.957 17.683105 4.338218 32.959677 11.960905
2004-06-14 07:29:47 51°11.221 2°41.957 17.683649 4.338429 32.961468 11.927195
2004-06-14 07:29:52 51°11.222 2°41.956 17.684527 4.338534 32.962952 11.994614
2004-06-14 07:29:57 51°11.223 2°41.955 17.683649 4.33864 32.963847 12.028324
2004-06-14 07:30:02 51°11.224 2°41.955 17.683649 4.33864 32.963847 12.028324
2004-06-14 07:30:07 51°11.225 2°41.955 17.684778 4.33864 32.964435 12.028324
2004-06-14 07:30:12 51°11.226 2°41.954 17.687079 4.338534 32.962364 11.994614
2004-06-14 07:30:16 51°11.226 2°41.954 17.683272 4.338534 32.962952 12.028324
2004-06-14 07:30:21 51°11.227 2°41.953 17.685866 4.33864 32.96326 12.028324
2004-06-14 07:30:26 51°11.228 2°41.952 17.685489 4.33864 32.96326 12.062033
2004-06-14 07:30:30 51°11.229 2°41.952 17.685489 4.33864 32.96326 12.062033
2004-06-14 07:30:36 51°11.23 2°41.951 17.686242 4.338534 32.961777 11.994614
2004-06-14 07:30:42 51°11.232 2°41.951 17.686619 4.338745 32.963568 11.960905
2004-06-14 07:30:47 51°11.232 2°41.95 17.685908 4.338851 32.965051 12.028324
2004-06-14 07:30:52 51°11.234 2°41.95 17.686535 4.338534 32.961777 11.960905
2004-06-14 07:30:57 51°11.235 2°41.949 17.688041 4.338956 32.965359 12.095742
2004-06-14 07:31:02 51°11.236 2°41.949 17.688041 4.338956 32.965359 12.095742
2004-06-14 07:31:07 51°11.237 2°41.949 17.687957 4.338745 32.96298 12.062033
2004-06-14 07:31:12 51°11.238 2°41.948 17.685196 4.33864 32.961497 12.129452
2004-06-14 07:31:17 51°11.239 2°41.948 17.687372 4.338851 32.962701 12.062033
2004-06-14 07:31:22 51°11.24 2°41.948 17.687162 4.338956 32.964184 12.062033
2004-06-14 07:31:25 51°11.24 2°41.947 17.685866 4.338745 32.962393 11.994614
2004-06-14 07:31:32 51°11.242 2°41.947 17.685866 4.338745 32.962393 11.994614
2004-06-14 07:31:36 51°11.243 2°41.946 17.686577 4.338323 32.95881 12.028324
2004-06-14 07:31:42 51°11.244 2°41.946 17.685447 4.33864 32.961497 12.062033
2004-06-14 07:31:47 51°11.245 2°41.946 17.686493 4.338745 32.962393 12.129452
2004-06-14 07:31:52 51°11.246 2°41.945 17.686493 4.338851 32.962701 12.129452
2004-06-14 07:31:57 51°11.247 2°41.945 17.686493 4.338851 32.963288 12.095742
2004-06-14 07:32:02 51°11.248 2°41.945 17.686493 4.338851 32.963288 12.095742
2004-06-14 07:32:07 51°11.249 2°41.945 17.68687 4.339167 32.965388 12.028324
2004-06-14 07:32:12 51°11.25 2°41.944 17.686702 4.338851 32.963876 12.163161
2004-06-14 07:32:16 51°11.251 2°41.944 17.690007 4.339167 32.965388 12.129452
2004-06-14 07:32:22 51°11.252 2°41.944 17.687079 4.339483 32.966899 12.129452
2004-06-14 07:32:27 51°11.253 2°41.944 17.690007 4.339694 32.970453 12.163161
2004-06-14 07:32:31 51°11.254 2°41.943 17.690007 4.339694 32.970453 12.163161
2004-06-14 07:32:37 51°11.256 2°41.943 17.687246 4.339378 32.968354 12.095742
2004-06-14 07:32:42 51°11.256 2°41.943 17.686117 4.339378 32.968354 12.095742
2004-06-14 07:32:47 51°11.258 2°41.943 17.686702 4.339378 32.968354 12.095742
2004-06-14 07:32:52 51°11.259 2°41.943 17.687162 4.339483 32.968662 12.129452
2004-06-14 07:32:56 51°11.26 2°41.943 17.687915 4.339483 32.968075 12.163161
2004-06-14 07:33:02 51°11.261 2°41.943 17.687915 4.339483 32.968075 12.163161
2004-06-14 07:33:07 51°11.262 2°41.943 17.688334 4.339378 32.967767 12.062033
2004-06-14 07:33:12 51°11.263 2°41.943 17.686995 4.340011 32.97314 12.095742
2004-06-14 07:33:17 51°11.264 2°41.943 17.685364 4.339483 32.968662 12.163161
2004-06-14 07:33:22 51°11.265 2°41.942 17.685657 4.3398 32.970761 12.163161
2004-06-14 07:33:27 51°11.267 2°41.943 17.687664 4.339694 32.970453 12.196871
2004-06-14 07:33:32 51°11.268 2°41.943 17.687664 4.339694 32.970453 12.196871
2004-06-14 07:33:36 51°11.268 2°41.943 17.685447 4.339694 32.970453 12.196871
2004-06-14 07:33:42 51°11.27 2°41.943 17.685364 4.340116 32.974036 12.028324
2004-06-14 07:33:47 51°11.273 2°41.942 17.686033 4.340222 32.975519 12.196871
2004-06-14 07:33:52 51°11.276 2°41.939 17.685573 4.340222 32.974932 12.163161
2004-06-14 07:33:56 51°11.28 2°41.937 17.685113 4.340432 32.976135 12.129452
2004-06-14 07:34:02 51°11.285 2°41.93 17.685113 4.340432 32.976135 12.129452
2004-06-14 07:34:07 51°11.291 2°41.922 17.685824 4.340643 32.979102 12.095742
2004-06-14 07:34:12 51°11.296 2°41.913 17.68574 4.340327 32.975827 12.196871
2004-06-14 07:34:16 51°11.3 2°41.903 17.688417 4.340538 32.978206 12.163161
2004-06-14 07:34:22 51°11.304 2°41.887 17.687413 4.340749 32.979998 12.264289
2004-06-14 07:34:26 51°11.306 2°41.875 17.685949 4.341065 32.983273 12.331708
2004-06-14 07:34:32 51°11.308 2°41.855 17.685949 4.341065 32.983273 12.331708
2004-06-14 07:34:35 51°11.307 2°41.845 17.685447 4.340854 32.982069 12.264289
2004-06-14 07:34:42 51°11.305 2°41.821 17.684318 4.340749 32.980586 12.399127
2004-06-14 07:34:46 51°11.302 2°41.807 17.683189 4.340538 32.978794 12.365418
2004-06-14 07:34:51 51°11.296 2°41.79 17.680637 4.340854 32.981481 12.399127
2004-06-14 07:34:57 51°11.288 2°41.769 17.683272 4.341171 32.984756 12.365418
2004-06-14 07:35:02 51°11.28 2°41.751 17.683272 4.341171 32.984756 12.365418
2004-06-14 07:35:07 51°11.272 2°41.731 17.684987 4.342331 32.995786 12.331708
2004-06-14 07:35:10 51°11.267 2°41.719 17.68528 4.343913 33.009812 12.399127
2004-06-14 07:35:16 51°11.257 2°41.693 17.681013 4.3456 33.025324 12.365418
2004-06-14 07:35:22 51°11.246 2°41.666 17.679549 4.348026 33.047111 12.331708
2004-06-14 07:35:26 51°11.239 2°41.647 17.679675 4.350663 33.069515 12.264289
2004-06-14 07:35:31 51°11.229 2°41.623 17.679675 4.350663 33.069515 12.264289
2004-06-14 07:35:36 51°11.22 2°41.599 17.673692 4.353299 33.090151 12.163161
2004-06-14 07:35:42 51°11.21 2°41.569 17.674738 4.354881 33.103005 12.062033
2004-06-14 07:35:47 51°11.2 2°41.545 17.678085 4.357096 33.121827 11.927195
2004-06-14 07:35:52 51°11.191 2°41.519 17.669132 4.358995 33.139144 11.960905
2004-06-14 07:35:56 51°11.183 2°41.5 17.675491 4.360998 33.156768 11.758648
2004-06-14 07:36:02 51°11.172 2°41.469 17.675491 4.360998 33.156768 11.758648
2004-06-14 07:36:07 51°11.163 2°41.444 17.672855 4.362053 33.166917 11.792358
2004-06-14 07:36:12 51°11.154 2°41.419 17.674654 4.363319 33.178268 11.792358
2004-06-14 07:36:16 51°11.146 2°41.399 17.669634 4.364584 33.190212 11.859777
2004-06-14 07:36:22 51°11.135 2°41.368 17.674947 4.365955 33.202462 11.893486
2004-06-14 07:36:27 51°11.125 2°41.343 17.674362 4.366377 33.205457 11.893486
2004-06-14 07:36:32 51°11.116 2°41.318 17.674362 4.366377 33.205457 11.893486
2004-06-14 07:36:36 51°11.108 2°41.298 17.669508 4.367537 33.214138 11.994614
2004-06-14 07:36:42 51°11.097 2°41.267 17.667918 4.36817 33.220111 12.095742
2004-06-14 07:36:47 51°11.087 2°41.242 17.673106 4.369436 33.233837 12.028324
2004-06-14 07:36:52 51°11.078 2°41.216 17.668086 4.369647 33.235038 12.095742
2004-06-14 07:36:56 51°11.07 2°41.196 17.665073 4.37028 33.241606 12.062033
2004-06-14 07:37:02 51°11.059 2°41.165 17.665073 4.37028 33.241606 12.062033
2004-06-14 07:37:05 51°11.054 2°41.15 17.667626 4.370596 33.245483 12.129452
2004-06-14 07:37:11 51°11.043 2°41.119 17.663148 4.371229 33.250865 12.129452
2004-06-14 07:37:16 51°11.033 2°41.093 17.659089 4.371229 33.251458 12.062033
2004-06-14 07:37:22 51°11.022 2°41.062 17.657834 4.371545 33.254743 12.163161
2004-06-14 07:37:27 51°11.013 2°41.036 17.665366 4.372073 33.259822 12.095742
2004-06-14 07:37:32 51°11.004 2°41.011 17.665366 4.372073 33.259822 12.095742
2004-06-14 07:37:37 51°10.995 2°40.985 17.655198 4.372284 33.263396 12.062033
2004-06-14 07:37:42 51°10.986 2°40.959 17.655198 4.372178 33.263092 12.129452
2004-06-14 07:37:45 51°10.98 2°40.944 17.661851 4.372495 33.268157 12.196871
2004-06-14 07:37:52 51°10.967 2°40.908 17.655867 4.372706 33.271139 12.129452
2004-06-14 07:37:57 51°10.959 2°40.882 17.654444 4.372073 33.265755 12.163161
2004-06-14 07:38:02 51°10.949 2°40.857 17.654444 4.372073 33.265755 12.163161
2004-06-14 07:38:07 51°10.939 2°40.831 17.652645 4.3726 33.272022 12.129452
2004-06-14 07:38:12 51°10.93 2°40.805 17.650176 4.372706 33.274701 12.23058
2004-06-14 07:38:17 51°10.921 2°40.78 17.65118 4.372073 33.267535 12.129452
2004-06-14 07:38:22 51°10.912 2°40.754 17.648292 4.370385 33.253771 12.095742
2004-06-14 07:38:25 51°10.907 2°40.738 17.652519 4.368909 33.241801 12.23058
2004-06-14 07:38:32 51°10.893 2°40.702 17.652519 4.368909 33.241801 12.23058
2004-06-14 07:38:36 51°10.887 2°40.681 17.649883 4.366694 33.222959 12.095742
2004-06-14 07:38:42 51°10.877 2°40.649 17.654612 4.364901 33.210669 12.163161
2004-06-14 07:38:47 51°10.87 2°40.622 17.650762 4.363741 33.201392 12.23058
2004-06-14 07:38:52 51°10.862 2°40.594 17.649339 4.36237 33.190912 12.196871
2004-06-14 07:38:57 51°10.856 2°40.567 17.652226 4.361315 33.18194 12.196871
2004-06-14 07:39:02 51°10.849 2°40.539 17.652226 4.361315 33.18194 12.196871
2004-06-14 07:39:05 51°10.845 2°40.523 17.64892 4.360682 33.175373 12.163161
2004-06-14 07:39:12 51°10.836 2°40.484 17.648083 4.360366 33.170907 12.163161
2004-06-14 07:39:16 51°10.83 2°40.462 17.643354 4.36005 33.170583 12.196871
2004-06-14 07:39:22 51°10.822 2°40.428 17.641135 4.360788 33.176271 12.129452
2004-06-14 07:39:27 51°10.815 2°40.401 17.639586 4.361421 33.181653 12.264289
2004-06-14 07:39:32 51°10.808 2°40.374 17.639586 4.361421 33.181653 12.264289
2004-06-14 07:39:37 51°10.801 2°40.346 17.639461 4.362897 33.194806 12.264289
2004-06-14 07:39:42 51°10.794 2°40.319 17.636573 4.363741 33.204354 12.331708
2004-06-14 07:39:45 51°10.79 2°40.302 17.637912 4.364163 33.210314 12.297999
2004-06-14 07:39:51 51°10.782 2°40.269 17.632973 4.364585 33.216867 12.297999
2004-06-14 07:39:56 51°10.775 2°40.241 17.628703 4.364796 33.218069 12.331708
2004-06-14 07:40:02 51°10.766 2°40.208 17.628703 4.364796 33.218069 12.331708
2004-06-14 07:40:07 51°10.759 2°40.181 17.632428 4.364479 33.217156 12.432836
2004-06-14 07:40:12 51°10.752 2°40.153 17.627782 4.364585 33.218053 12.365418
2004-06-14 07:40:17 51°10.745 2°40.126 17.63021 4.363952 33.214447 12.331708
2004-06-14 07:40:22 51°10.737 2°40.099 17.626609 4.364269 33.218325 12.399127
2004-06-14 07:40:25 51°10.733 2°40.082 17.625563 4.364479 33.222493 12.331708
2004-06-14 07:40:32 51°10.723 2°40.044 17.625563 4.364479 33.222493 12.331708
2004-06-14 07:40:36 51°10.718 2°40.022 17.624977 4.364585 33.223983 12.264289
2004-06-14 07:40:42 51°10.71 2°39.988 17.621501 4.36469 33.226067 12.196871
2004-06-14 07:40:47 51°10.703 2°39.961 17.617314 4.365323 33.231454 12.23058
2004-06-14 07:40:52 51°10.697 2°39.933 17.618278 4.365851 33.238316 12.264289
2004-06-14 07:40:56 51°10.691 2°39.911 17.617482 4.366694 33.246686 12.23058
2004-06-14 07:41:02 51°10.683 2°39.878 17.617482 4.366694 33.246686 12.23058
2004-06-14 07:41:07 51°10.676 2°39.85 17.61141 4.367116 33.251465 12.129452
2004-06-14 07:41:12 51°10.669 2°39.823 17.611787 4.367749 33.258041 12.163161
2004-06-14 07:41:16 51°10.664 2°39.801 17.60538 4.368698 33.2685 12.129452
2004-06-14 07:41:22 51°10.656 2°39.768 17.608228 4.369331 33.275077 12.129452
2004-06-14 07:41:27 51°10.649 2°39.74 17.60605 4.369542 33.278656 12.028324
2004-06-14 07:41:32 51°10.642 2°39.713 17.60605 4.369542 33.278656 12.028324
2004-06-14 07:41:36 51°10.636 2°39.69 17.606678 4.370491 33.288524 12.095742
2004-06-14 07:41:42 51°10.628 2°39.657 17.607181 4.370702 33.292105 12.264289
2004-06-14 07:41:47 51°10.621 2°39.63 17.606678 4.371863 33.304366 12.163161
2004-06-14 07:41:52 51°10.615 2°39.602 17.606971 4.371968 33.30586 12.23058
2004-06-14 07:41:57 51°10.608 2°39.574 17.611494 4.372284 33.309746 12.163161
2004-06-14 07:42:02 51°10.603 2°39.546 17.611494 4.372284 33.309746 12.163161
2004-06-14 07:42:07 51°10.596 2°39.518 17.607725 4.373023 33.31544 12.23058
2004-06-14 07:42:12 51°10.591 2°39.49 17.61095 4.373866 33.323224 12.297999
2004-06-14 07:42:16 51°10.586 2°39.468 17.612373 4.374605 33.329514 12.23058
2004-06-14 07:42:22 51°10.579 2°39.434 17.607683 4.375132 33.334007 12.196871
2004-06-14 07:42:27 51°10.573 2°39.405 17.608605 4.375449 33.335511 12.163161
2004-06-14 07:42:32 51°10.567 2°39.378 17.608605 4.375449 33.335511 12.163161
2004-06-14 07:42:37 51°10.561 2°39.35 17.610657 4.375659 33.336713 12.095742
2004-06-14 07:42:42 51°10.556 2°39.321 17.603914 4.376081 33.339712 12.196871
2004-06-14 07:42:47 51°10.549 2°39.293 17.602951 4.376398 33.342408 12.23058
2004-06-14 07:42:52 51°10.544 2°39.265 17.605338 4.37682 33.347193 12.196871
2004-06-14 07:42:56 51°10.539 2°39.243 17.605003 4.376503 33.345093 12.23058
2004-06-14 07:43:02 51°10.532 2°39.209 17.605003 4.376503 33.345093 12.23058
2004-06-14 07:43:07 51°10.526 2°39.181 17.605422 4.377663 33.355575 12.23058
2004-06-14 07:43:12 51°10.52 2°39.153 17.603035 4.37798 33.360059 12.23058
2004-06-14 07:43:16 51°10.515 2°39.131 17.603286 4.378824 33.367845 12.264289
2004-06-14 07:43:22 51°10.509 2°39.097 17.606385 4.379245 33.372633 12.163161
2004-06-14 07:43:27 51°10.502 2°39.069 17.597381 4.379667 33.37444 12.095742
2004-06-14 07:43:32 51°10.497 2°39.041 17.597381 4.379667 33.37444 12.095742
2004-06-14 07:43:37 51°10.491 2°39.013 17.598721 4.380089 33.378631 12.163161
2004-06-14 07:43:39 51°10.488 2°39.002 17.597967 4.381249 33.389712 12.028324
2004-06-14 07:43:46 51°10.48 2°38.963 17.596585 4.381882 33.394509 12.163161
2004-06-14 07:43:52 51°10.473 2°38.929 17.600564 4.382304 33.399299 12.129452
2004-06-14 07:43:57 51°10.467 2°38.901 17.595077 4.38357 33.411878 12.062033
2004-06-14 07:44:02 51°10.461 2°38.873 17.595077 4.38357 33.411878 12.062033
2004-06-14 07:44:07 51°10.455 2°38.845 17.600396 4.384519 33.421165 12.129452
2004-06-14 07:44:12 51°10.449 2°38.817 17.591936 4.38473 33.424755 12.062033
2004-06-14 07:44:16 51°10.444 2°38.795 17.587328 4.385785 33.43315 12.129452
2004-06-14 07:44:22 51°10.437 2°38.76 17.582427 4.386734 33.441243 11.927195
2004-06-14 07:44:27 51°10.431 2°38.732 17.58138 4.387789 33.450236 11.960905
2004-06-14 07:44:32 51°10.425 2°38.704 17.58138 4.387789 33.450236 11.960905
2004-06-14 07:44:37 51°10.419 2°38.676 17.586909 4.388105 33.453532 12.028324
2004-06-14 07:44:42 51°10.413 2°38.647 17.578321 4.388949 33.461922 12.028324
2004-06-14 07:44:45 51°10.409 2°38.63 17.573294 4.389793 33.472708 12.129452
2004-06-14 07:44:52 51°10.401 2°38.591 17.572121 4.390847 33.484696 12.028324
2004-06-14 07:44:56 51°10.395 2°38.568 17.565626 4.391586 33.492191 12.23058
2004-06-14 07:45:02 51°10.389 2°38.534 17.565626 4.391586 33.492191 12.23058
2004-06-14 07:45:07 51°10.382 2°38.507 17.566422 4.391269 33.49069 11.960905
2004-06-14 07:45:12 51°10.377 2°38.478 17.562022 4.39264 33.504184 12.062033
2004-06-14 07:45:17 51°10.37 2°38.45 17.564955 4.393379 33.51288 11.893486
2004-06-14 07:45:22 51°10.364 2°38.422 17.547899 4.394328 33.525776 11.893486
2004-06-14 07:45:25 51°10.361 2°38.405 17.546977 4.395066 33.535076 11.960905
2004-06-14 07:45:32 51°10.352 2°38.365 17.546977 4.395066 33.535076 11.960905
2004-06-14 07:45:36 51°10.348 2°38.342 17.547522 4.396754 33.55188 11.927195
2004-06-14 07:45:42 51°10.34 2°38.309 17.540857 4.396543 33.55188 11.792358
2004-06-14 07:45:47 51°10.335 2°38.28 17.533228 4.397914 33.565987 11.927195
2004-06-14 07:45:52 51°10.328 2°38.252 17.532389 4.398758 33.577998 11.826067
2004-06-14 07:45:56 51°10.324 2°38.229 17.524633 4.399286 33.584304 11.826067
2004-06-14 07:46:02 51°10.317 2°38.195 17.524633 4.399286 33.584304 11.826067
2004-06-14 07:46:07 51°10.311 2°38.167 17.528658 4.399707 33.590312 11.792358
2004-06-14 07:46:12 51°10.305 2°38.139 17.518427 4.40034 33.600528 11.994614
2004-06-14 07:46:16 51°10.3 2°38.117 17.519518 4.400762 33.606538 11.826067
2004-06-14 07:46:22 51°10.293 2°38.082 17.523123 4.400868 33.61105 11.859777
2004-06-14 07:46:27 51°10.287 2°38.054 17.51046 4.401606 33.621572 11.758648
2004-06-14 07:46:32 51°10.281 2°38.027 17.51046 4.401606 33.621572 11.758648
2004-06-14 07:46:37 51°10.275 2°37.998 17.509453 4.401712 33.623678 11.859777
2004-06-14 07:46:42 51°10.269 2°37.97 17.499388 4.402239 33.631196 11.859777
2004-06-14 07:46:45 51°10.266 2°37.953 17.500646 4.402556 33.636913 11.724939
2004-06-14 07:46:52 51°10.257 2°37.914 17.498004 4.402977 33.641121 11.758648
2004-06-14 07:46:56 51°10.253 2°37.891 17.498046 4.403927 33.653455 11.792358
2004-06-14 07:47:02 51°10.245 2°37.857 17.498046 4.403927 33.653455 11.792358
2004-06-14 07:47:07 51°10.239 2°37.83 17.50396 4.404454 33.662789 11.724939
2004-06-14 07:47:12 51°10.233 2°37.801 17.500227 4.405087 33.671217 11.556392
2004-06-14 07:47:16 51°10.229 2°37.779 17.502911 4.405087 33.674838 11.724939
2004-06-14 07:47:22 51°10.222 2°37.745 17.500227 4.405087 33.676045 11.859777
2004-06-14 07:47:27 51°10.216 2°37.717 17.496536 4.404982 33.676351 11.65752
2004-06-14 07:47:32 51°10.21 2°37.689 17.496536 4.404982 33.676351 11.65752
2004-06-14 07:47:36 51°10.205 2°37.666 17.497962 4.405087 33.676649 11.69123
2004-06-14 07:47:42 51°10.199 2°37.632 17.495781 4.405193 33.676947 11.623811
2004-06-14 07:47:47 51°10.192 2°37.605 17.500059 4.405509 33.67905 11.623811
2004-06-14 07:47:52 51°10.187 2°37.576 17.49662 4.405931 33.68447 11.65752
2004-06-14 07:47:57 51°10.181 2°37.548 17.493851 4.406247 33.688384 11.65752
2004-06-14 07:48:02 51°10.174 2°37.521 17.493851 4.406247 33.688384 11.65752
2004-06-14 07:48:05 51°10.17 2°37.504 17.488859 4.407091 33.695601 11.556392
2004-06-14 07:48:11 51°10.164 2°37.47 17.48823 4.406986 33.695303 11.758648
2004-06-14 07:48:16 51°10.157 2°37.442 17.485252 4.406564 33.691694 11.758648
2004-06-14 07:48:22 51°10.15 2°37.408 17.482651 4.407197 33.697108 11.724939
2004-06-14 07:48:27 51°10.145 2°37.381 17.481224 4.407408 33.701329 11.859777
2004-06-14 07:48:32 51°10.138 2°37.353 17.481224 4.407408 33.701329 11.859777
2004-06-14 07:48:37 51°10.133 2°37.324 17.478749 4.407935 33.708258 11.826067
2004-06-14 07:48:42 51°10.127 2°37.296 17.48177 4.408462 33.713979 11.792358
2004-06-14 07:48:45 51°10.123 2°37.28 17.480259 4.409412 33.72331 11.758648
2004-06-14 07:48:52 51°10.115 2°37.241 17.479504 4.410256 33.733555 11.758648
2004-06-14 07:48:57 51°10.109 2°37.212 17.475141 4.41131 33.744396 11.69123
2004-06-14 07:49:02 51°10.103 2°37.185 17.475141 4.41131 33.744396 11.69123
2004-06-14 07:49:07 51°10.098 2°37.156 17.470231 4.412049 33.751926 11.69123
2004-06-14 07:49:12 51°10.091 2°37.129 17.47535 4.411838 33.751937 11.724939
2004-06-14 07:49:16 51°10.087 2°37.106 17.473085 4.412154 33.754645 11.623811
2004-06-14 07:49:22 51°10.079 2°37.073 17.466077 4.412681 33.758554 11.65752
2004-06-14 07:49:27 51°10.074 2°37.045 17.458859 4.413209 33.764885 11.65752
2004-06-14 07:49:32 51°10.067 2°37.017 17.458859 4.413209 33.764885 11.65752
2004-06-14 07:49:37 51°10.062 2°36.989 17.456131 4.413314 33.766999 11.623811
2004-06-14 07:49:42 51°10.055 2°36.961 17.454704 4.413209 33.767308 11.455264
2004-06-14 07:49:47 51°10.05 2°36.933 17.45185 4.413736 33.771822 11.556392
2004-06-14 07:49:52 51°10.043 2°36.905 17.444547 4.413525 33.773652 11.488973
2004-06-14 07:49:56 51°10.039 2°36.883 17.442154 4.414158 33.78392 11.65752
2004-06-14 07:50:02 51°10.032 2°36.85 17.442154 4.414158 33.78392 11.65752
2004-06-14 07:50:07 51°10.026 2°36.822 17.442196 4.414158 33.787558 11.758648
2004-06-14 07:50:12 51°10.02 2°36.794 17.445554 4.415002 33.797211 11.69123
2004-06-14 07:50:16 51°10.015 2°36.771 17.43804 4.415108 33.799934 11.590101
2004-06-14 07:50:22 51°10.008 2°36.738 17.439593 4.41553 33.808403 11.65752
2004-06-14 07:50:27 51°10.002 2°36.71 17.440097 4.415741 33.812639 11.590101
2004-06-14 07:50:32 51°9.996 2°36.682 17.440097 4.415741 33.812639 11.590101
2004-06-14 07:50:37 51°9.99 2°36.654 17.429518 4.416057 33.815957 11.623811
2004-06-14 07:50:42 51°9.984 2°36.626 17.425907 4.416163 33.817468 11.522683
2004-06-14 07:50:46 51°9.979 2°36.604 17.425067 4.41669 33.821987 11.65752
2004-06-14 07:50:51 51°9.973 2°36.576 17.422254 4.416901 33.826831 11.65752
2004-06-14 07:50:56 51°9.967 2°36.548 17.41986 4.417112 33.830461 11.623811
2004-06-14 07:51:02 51°9.96 2°36.515 17.41986 4.417112 33.830461 11.623811
2004-06-14 07:51:07 51°9.954 2°36.487 17.422758 4.417534 33.837116 11.623811
2004-06-14 07:51:12 51°9.948 2°36.459 17.417845 4.417534 33.840155 11.556392
2004-06-14 07:51:16 51°9.943 2°36.437 17.415955 4.417639 33.842883 11.623811
2004-06-14 07:51:22 51°9.936 2°36.403 17.411714 4.418483 33.852548 11.623811
2004-06-14 07:51:27 51°9.931 2°36.375 17.402768 4.418167 33.852268 11.623811
2004-06-14 07:51:32 51°9.925 2°36.347 17.402768 4.418167 33.852268 11.623811
2004-06-14 07:51:36 51°9.922 2°36.324 17.402558 4.418272 33.852565 11.488973
2004-06-14 07:51:42 51°9.918 2°36.29 17.396047 4.418589 33.858319 11.488973
2004-06-14 07:51:47 51°9.917 2°36.26 17.398441 4.419116 33.865884 11.488973
2004-06-14 07:51:52 51°9.917 2°36.231 17.394955 4.419011 33.868022 11.488973
2004-06-14 07:51:57 51°9.919 2°36.202 17.404952 4.419433 33.874685 11.455264
2004-06-14 07:52:02 51°9.922 2°36.173 17.404952 4.419433 33.874685 11.455264